Wetterdaten: Mittwoch, 05.02.2014
Datum Zeit Temp. Aussen +5cm Feuchte Auss Luftdruck Regen Sonnenschein Regendauer UV Solar Windben
05.02.2014 00:00 3,7 C 2,2 C 90 % 1003,3 hPa 0,0 l/m 0 min 0 min 0,0 UV-I 0 W/m 18,0 km/h (3 Bft)
05.02.2014 00:02 3,7 C 2,2 C 90 % 1003,3 hPa 0,0 l/m 0 min 0 min 0,0 UV-I 0 W/m 10,3 km/h (2 Bft)
05.02.2014 00:04 3,7 C 2,2 C 90 % 1003,3 hPa 0,0 l/m 0 min 0 min 0,0 UV-I 0 W/m 12,9 km/h (3 Bft)
05.02.2014 00:06 3,7 C 2,2 C 90 % 1003,2 hPa 0,0 l/m 0 min 0 min 0,0 UV-I 0 W/m 15,4 km/h (3 Bft)
05.02.2014 00:08 3,7 C 2,2 C 90 % 1003,2 hPa 0,0 l/m 0 min 0 min 0,0 UV-I 0 W/m 18,0 km/h (3 Bft)
05.02.2014 00:10 3,8 C 2,2 C 90 % 1003,1 hPa 0,0 l/m 0 min 0 min 0,0 UV-I 0 W/m 28,3 km/h (4 Bft)
05.02.2014 00:12 3,8 C 2,2 C 90 % 1003,0 hPa 0,0 l/m 0 min 0 min 0,0 UV-I 0 W/m 15,4 km/h (3 Bft)
05.02.2014 00:14 3,8 C 2,2 C 89 % 1003,0 hPa 0,0 l/m 0 min 0 min 0,0 UV-I 0 W/m 20,6 km/h (4 Bft)
05.02.2014 00:16 3,8 C 2,2 C 89 % 1003,0 hPa 0,0 l/m 0 min 0 min 0,0 UV-I 0 W/m 15,4 km/h (3 Bft)
05.02.2014 00:18 3,8 C 2,2 C 89 % 1002,8 hPa 0,0 l/m 0 min 0 min 0,0 UV-I 0 W/m 15,4 km/h (3 Bft)
05.02.2014 00:20 3,8 C 2,2 C 89 % 1002,8 hPa 0,0 l/m 0 min 0 min 0,0 UV-I 0 W/m 15,4 km/h (3 Bft)
05.02.2014 00:22 3,8 C 2,2 C 89 % 1002,8 hPa 0,0 l/m 0 min 0 min 0,0 UV-I 0 W/m 10,3 km/h (2 Bft)
05.02.2014 00:24 3,8 C 2,2 C 89 % 1002,7 hPa 0,0 l/m 0 min 0 min 0,0 UV-I 0 W/m 20,6 km/h (4 Bft)
05.02.2014 00:26 3,8 C 2,2 C 89 % 1002,7 hPa 0,0 l/m 0 min 0 min 0,0 UV-I 0 W/m 23,2 km/h (4 Bft)
05.02.2014 00:28 3,8 C 2,2 C 89 % 1002,7 hPa 0,0 l/m 0 min 0 min 0,0 UV-I 0 W/m 18,0 km/h (3 Bft)
05.02.2014 00:30 3,8 C 2,2 C 89 % 1002,7 hPa 0,0 l/m 0 min 0 min 0,0 UV-I 0 W/m 20,6 km/h (4 Bft)
05.02.2014 00:32 3,8 C 2,2 C 89 % 1002,6 hPa 0,0 l/m 0 min 0 min 0,0 UV-I 0 W/m 20,6 km/h (4 Bft)
05.02.2014 00:34 3,8 C 2,2 C 90 % 1002,6 hPa 0,0 l/m 0 min 0 min 0,0 UV-I 0 W/m 18,0 km/h (3 Bft)
05.02.2014 00:36 3,8 C 2,2 C 90 % 1002,6 hPa 0,0 l/m 0 min 0 min 0,0 UV-I 0 W/m 20,6 km/h (4 Bft)
05.02.2014 00:38 3,8 C 2,2 C 90 % 1002,6 hPa 0,0 l/m 0 min 0 min 0,0 UV-I 0 W/m 28,3 km/h (4 Bft)
05.02.2014 00:40 3,8 C 2,2 C 90 % 1002,6 hPa 0,0 l/m 0 min 0 min 0,0 UV-I 0 W/m 28,3 km/h (4 Bft)
05.02.2014 00:42 3,8 C 2,2 C 90 % 1002,6 hPa 0,0 l/m 0 min 0 min 0,0 UV-I 0 W/m 20,6 km/h (4 Bft)
05.02.2014 00:44 3,9 C 2,2 C 90 % 1002,6 hPa 0,0 l/m 0 min 0 min 0,0 UV-I 0 W/m 15,4 km/h (3 Bft)
05.02.2014 00:46 3,9 C 2,2 C 90 % 1002,6 hPa 0,0 l/m 0 min 0 min 0,0 UV-I 0 W/m 15,4 km/h (3 Bft)
05.02.2014 00:48 3,9 C 2,2 C 90 % 1002,5 hPa 0,0 l/m 0 min 0 min 0,0 UV-I 0 W/m 15,4 km/h (3 Bft)
05.02.2014 00:50 3,9 C 2,2 C 90 % 1002,5 hPa 0,0 l/m 0 min 0 min 0,0 UV-I 0 W/m 18,0 km/h (3 Bft)
05.02.2014 00:52 3,9 C 2,2 C 90 % 1002,4 hPa 0,0 l/m 0 min 0 min 0,0 UV-I 0 W/m 23,2 km/h (4 Bft)
05.02.2014 00:54 3,9 C 2,2 C 90 % 1002,4 hPa 0,0 l/m 0 min 0 min 0,0 UV-I 0 W/m 20,6 km/h (4 Bft)
05.02.2014 00:56 3,9 C 2,2 C 90 % 1002,4 hPa 0,0 l/m 0 min 0 min 0,0 UV-I 0 W/m 20,6 km/h (4 Bft)
05.02.2014 00:58 3,9 C 2,2 C 90 % 1002,3 hPa 0,0 l/m 0 min 0 min 0,0 UV-I 0 W/m 18,0 km/h (3 Bft)
05.02.2014 01:00 3,9 C 2,2 C 90 % 1002,4 hPa 0,0 l/m 0 min 0 min 0,0 UV-I 0 W/m 18,0 km/h (3 Bft)
05.02.2014 01:02 3,9 C 2,2 C 90 % 1002,3 hPa 0,0 l/m 0 min 0 min 0,0 UV-I 0 W/m 23,2 km/h (4 Bft)
05.02.2014 01:04 3,9 C 2,2 C 90 % 1002,3 hPa 0,0 l/m 0 min 0 min 0,0 UV-I 0 W/m 23,2 km/h (4 Bft)
05.02.2014 01:06 3,9 C 2,2 C 90 % 1002,3 hPa 0,0 l/m 0 min 0 min 0,0 UV-I 0 W/m 12,9 km/h (3 Bft)
05.02.2014 01:08 4,0 C 2,2 C 90 % 1002,2 hPa 0,0 l/m 0 min 0 min 0,0 UV-I 0 W/m 20,6 km/h (4 Bft)
05.02.2014 01:10 3,9 C 2,2 C 90 % 1002,1 hPa 0,0 l/m 0 min 0 min 0,0 UV-I 0 W/m 23,2 km/h (4 Bft)
05.02.2014 01:12 3,9 C 2,2 C 90 % 1002,1 hPa 0,0 l/m 0 min 0 min 0,0 UV-I 0 W/m 15,4 km/h (3 Bft)
05.02.2014 01:14 3,9 C 2,2 C 90 % 1002,1 hPa 0,0 l/m 0 min 0 min 0,0 UV-I 0 W/m 18,0 km/h (3 Bft)
05.02.2014 01:16 3,9 C 2,2 C 90 % 1002,0 hPa 0,0 l/m 0 min 0 min 0,0 UV-I 0 W/m 15,4 km/h (3 Bft)
05.02.2014 01:18 3,9 C 2,2 C 90 % 1002,0 hPa 0,0 l/m 0 min 0 min 0,0 UV-I 0 W/m 18,0 km/h (3 Bft)
05.02.2014 01:20 3,9 C 2,2 C 90 % 1001,9 hPa 0,0 l/m 0 min 0 min 0,0 UV-I 0 W/m 18,0 km/h (3 Bft)
05.02.2014 01:22 3,9 C 2,2 C 90 % 1001,9 hPa 0,0 l/m 0 min 0 min 0,0 UV-I 0 W/m 23,2 km/h (4 Bft)
05.02.2014 01:24 3,8 C 2,2 C 90 % 1001,8 hPa 0,0 l/m 0 min 0 min 0,0 UV-I 0 W/m 15,4 km/h (3 Bft)
05.02.2014 01:26 3,8 C 2,2 C 90 % 1001,8 hPa 0,0 l/m 0 min 0 min 0,0 UV-I 0 W/m 23,2 km/h (4 Bft)
05.02.2014 01:28 3,8 C 2,2 C 90 % 1001,7 hPa 0,0 l/m 0 min 0 min 0,0 UV-I 0 W/m 23,2 km/h (4 Bft)
05.02.2014 01:30 3,8 C 2,2 C 90 % 1001,8 hPa 0,0 l/m 0 min 0 min 0,0 UV-I 0 W/m 20,6 km/h (4 Bft)
05.02.2014 01:32 3,8 C 2,2 C 90 % 1001,7 hPa 0,0 l/m 0 min 0 min 0,0 UV-I 0 W/m 25,7 km/h (4 Bft)
05.02.2014 01:34 3,8 C 2,2 C 90 % 1001,6 hPa 0,0 l/m 0 min 0 min 0,0 UV-I 0 W/m 18,0 km/h (3 Bft)
05.02.2014 01:36 3,8 C 2,2 C 90 % 1001,6 hPa 0,0 l/m 0 min 0 min 0,0 UV-I 0 W/m 15,4 km/h (3 Bft)
05.02.2014 01:38 3,8 C 2,2 C 90 % 1001,6 hPa 0,0 l/m 0 min 0 min 0,0 UV-I 0 W/m 20,6 km/h (4 Bft)
05.02.2014 01:40 3,7 C 2,2 C 90 % 1001,7 hPa 0,0 l/m 0 min 0 min 0,0 UV-I 0 W/m 23,2 km/h (4 Bft)
05.02.2014 01:42 3,7 C 2,2 C 90 % 1001,6 hPa 0,0 l/m 0 min 0 min 0,0 UV-I 0 W/m 15,4 km/h (3 Bft)
05.02.2014 01:44 3,7 C 2,2 C 90 % 1001,6 hPa 0,0 l/m 0 min 0 min 0,0 UV-I 0 W/m 23,2 km/h (4 Bft)
05.02.2014 01:46 3,6 C 1,7 C 90 % 1001,5 hPa 0,0 l/m 0 min 0 min 0,0 UV-I 0 W/m 18,0 km/h (3 Bft)
05.02.2014 01:48 3,6 C 1,7 C 90 % 1001,5 hPa 0,0 l/m 0 min 0 min 0,0 UV-I 0 W/m 15,4 km/h (3 Bft)
05.02.2014 01:50 3,6 C 1,7 C 90 % 1001,4 hPa 0,0 l/m 0 min 0 min 0,0 UV-I 0 W/m 18,0 km/h (3 Bft)
05.02.2014 01:52 3,6 C 1,7 C 90 % 1001,3 hPa 0,0 l/m 0 min 0 min 0,0 UV-I 0 W/m 18,0 km/h (3 Bft)
05.02.2014 01:54 3,5 C 1,7 C 90 % 1001,3 hPa 0,0 l/m 0 min 0 min 0,0 UV-I 0 W/m 20,6 km/h (4 Bft)
05.02.2014 01:56 3,5 C 1,7 C 90 % 1001,2 hPa 0,0 l/m 0 min 0 min 0,0 UV-I 0 W/m 18,0 km/h (3 Bft)
05.02.2014 01:58 3,4 C 1,7 C 90 % 1001,2 hPa 0,0 l/m 0 min 0 min 0,0 UV-I 0 W/m 12,9 km/h (3 Bft)
05.02.2014 02:00 3,4 C 1,7 C 90 % 1001,2 hPa 0,0 l/m 0 min 0 min 0,0 UV-I 0 W/m 25,7 km/h (4 Bft)
05.02.2014 02:02 3,4 C 1,7 C 90 % 1001,2 hPa 0,0 l/m 0 min 0 min 0,0 UV-I 0 W/m 15,4 km/h (3 Bft)
05.02.2014 02:04 3,4 C 1,7 C 91 % 1001,2 hPa 0,0 l/m 0 min 0 min 0,0 UV-I 0 W/m 23,2 km/h (4 Bft)
05.02.2014 02:06 3,4 C 1,7 C 91 % 1001,1 hPa 0,0 l/m 0 min 0 min 0,0 UV-I 0 W/m 18,0 km/h (3 Bft)
05.02.2014 02:08 3,5 C 1,7 C 91 % 1001,0 hPa 0,0 l/m 0 min 0 min 0,0 UV-I 0 W/m 28,3 km/h (4 Bft)
05.02.2014 02:10 3,5 C 1,7 C 91 % 1001,1 hPa 0,0 l/m 0 min 0 min 0,0 UV-I 0 W/m 25,7 km/h (4 Bft)
05.02.2014 02:12 3,5 C 1,7 C 91 % 1001,0 hPa 0,0 l/m 0 min 0 min 0,0 UV-I 0 W/m 15,4 km/h (3 Bft)
05.02.2014 02:14 3,5 C 1,7 C 91 % 1001,0 hPa 0,0 l/m 0 min 0 min 0,0 UV-I 0 W/m 20,6 km/h (4 Bft)
05.02.2014 02:16 3,5 C 1,7 C 91 % 1000,9 hPa 0,0 l/m 0 min 0 min 0,0 UV-I 0 W/m 12,9 km/h (3 Bft)
05.02.2014 02:18 3,4 C 1,7 C 91 % 1000,9 hPa 0,0 l/m 0 min 0 min 0,0 UV-I 0 W/m 18,0 km/h (3 Bft)
05.02.2014 02:20 3,4 C 1,7 C 91 % 1001,0 hPa 0,0 l/m 0 min 0 min 0,0 UV-I 0 W/m 18,0 km/h (3 Bft)
05.02.2014 02:22 3,4 C 1,7 C 91 % 1000,9 hPa 0,0 l/m 0 min 0 min 0,0 UV-I 0 W/m 20,6 km/h (4 Bft)
05.02.2014 02:24 3,4 C 1,7 C 91 % 1001,0 hPa 0,0 l/m 0 min 0 min 0,0 UV-I 0 W/m 15,4 km/h (3 Bft)
05.02.2014 02:26 3,4 C 1,7 C 91 % 1000,9 hPa 0,0 l/m 0 min 0 min 0,0 UV-I 0 W/m 20,6 km/h (4 Bft)
05.02.2014 02:28 3,4 C 1,7 C 91 % 1000,9 hPa 0,0 l/m 0 min 0 min 0,0 UV-I 0 W/m 15,4 km/h (3 Bft)
05.02.2014 02:30 3,4 C 1,7 C 91 % 1000,9 hPa 0,0 l/m 0 min 0 min 0,0 UV-I 0 W/m 12,9 km/h (3 Bft)
05.02.2014 02:32 3,4 C 1,7 C 91 % 1000,8 hPa 0,0 l/m 0 min 0 min 0,0 UV-I 0 W/m 25,7 km/h (4 Bft)
05.02.2014 02:34 3,4 C 1,7 C 91 % 1000,8 hPa 0,0 l/m 0 min 0 min 0,0 UV-I 0 W/m 18,0 km/h (3 Bft)
05.02.2014 02:36 3,4 C 1,7 C 91 % 1000,7 hPa 0,0 l/m 0 min 0 min 0,0 UV-I 0 W/m 15,4 km/h (3 Bft)
05.02.2014 02:38 3,5 C 1,7 C 91 % 1000,6 hPa 0,0 l/m 0 min 0 min 0,0 UV-I 0 W/m 23,2 km/h (4 Bft)
05.02.2014 02:40 3,5 C 2,2 C 91 % 1000,5 hPa 0,0 l/m 0 min 0 min 0,0 UV-I 0 W/m 28,3 km/h (4 Bft)
05.02.2014 02:42 3,6 C 2,2 C 91 % 1000,3 hPa 0,0 l/m 0 min 0 min 0,0 UV-I 0 W/m 18,0 km/h (3 Bft)
05.02.2014 02:44 3,6 C 2,2 C 91 % 1000,3 hPa 0,0 l/m 0 min 0 min 0,0 UV-I 0 W/m 23,2 km/h (4 Bft)
05.02.2014 02:46 3,6 C 2,2 C 91 % 1000,2 hPa 0,0 l/m 0 min 0 min 0,0 UV-I 0 W/m 18,0 km/h (3 Bft)
05.02.2014 02:48 3,6 C 2,2 C 91 % 1000,1 hPa 0,0 l/m 0 min 0 min 0,0 UV-I 0 W/m 28,3 km/h (4 Bft)
05.02.2014 02:50 3,6 C 2,2 C 91 % 999,9 hPa 0,0 l/m 0 min 0 min 0,0 UV-I 0 W/m 12,9 km/h (3 Bft)
05.02.2014 02:52 3,6 C 2,2 C 91 % 999,8 hPa 0,0 l/m 0 min 0 min 0,0 UV-I 0 W/m 23,2 km/h (4 Bft)
05.02.2014 02:54 3,6 C 2,2 C 91 % 999,8 hPa 0,0 l/m 0 min 0 min 0,0 UV-I 0 W/m 18,0 km/h (3 Bft)
05.02.2014 02:56 3,6 C 2,2 C 91 % 999,9 hPa 0,0 l/m 0 min 0 min 0,0 UV-I 0 W/m 30,9 km/h (5 Bft)
05.02.2014 02:58 3,7 C 2,2 C 90 % 999,8 hPa 0,0 l/m 0 min 0 min 0,0 UV-I 0 W/m 20,6 km/h (4 Bft)
05.02.2014 03:00 3,7 C 2,2 C 90 % 999,8 hPa 0,0 l/m 0 min 0 min 0,0 UV-I 0 W/m 28,3 km/h (4 Bft)
05.02.2014 03:02 3,7 C 2,2 C 90 % 999,7 hPa 0,0 l/m 0 min 0 min 0,0 UV-I 0 W/m 28,3 km/h (4 Bft)
05.02.2014 03:04 3,7 C 2,2 C 90 % 999,8 hPa 0,0 l/m 0 min 0 min 0,0 UV-I 0 W/m 36,0 km/h (5 Bft)
05.02.2014 03:06 3,7 C 2,2 C 90 % 999,7 hPa 0,0 l/m 0 min 0 min 0,0 UV-I 0 W/m 25,7 km/h (4 Bft)
05.02.2014 03:08 3,7 C 2,2 C 90 % 999,7 hPa 0,0 l/m 0 min 0 min 0,0 UV-I 0 W/m 28,3 km/h (4 Bft)
05.02.2014 03:10 3,7 C 2,2 C 90 % 999,7 hPa 0,0 l/m 0 min 0 min 0,0 UV-I 0 W/m 23,2 km/h (4 Bft)
05.02.2014 03:12 3,7 C 2,2 C 90 % 999,7 hPa 0,0 l/m 0 min 0 min 0,0 UV-I 0 W/m 15,4 km/h (3 Bft)
05.02.2014 03:14 3,7 C 2,2 C 90 % 999,6 hPa 0,0 l/m 0 min 0 min 0,0 UV-I 0 W/m 25,7 km/h (4 Bft)
05.02.2014 03:16 3,7 C 2,2 C 90 % 999,5 hPa 0,0 l/m 0 min 0 min 0,0 UV-I 0 W/m 12,9 km/h (3 Bft)
05.02.2014 03:18 3,7 C 2,2 C 90 % 999,5 hPa 0,0 l/m 0 min 0 min 0,0 UV-I 0 W/m 25,7 km/h (4 Bft)
05.02.2014 03:20 3,7 C 2,2 C 90 % 999,5 hPa 0,0 l/m 0 min 0 min 0,0 UV-I 0 W/m 20,6 km/h (4 Bft)
05.02.2014 03:22 3,7 C 2,2 C 90 % 999,5 hPa 0,0 l/m 0 min 0 min 0,0 UV-I 0 W/m 25,7 km/h (4 Bft)
05.02.2014 03:24 3,7 C 2,2 C 90 % 999,5 hPa 0,0 l/m 0 min 0 min 0,0 UV-I 0 W/m 33,5 km/h (5 Bft)
05.02.2014 03:26 3,7 C 2,2 C 90 % 999,4 hPa 0,0 l/m 0 min 0 min 0,0 UV-I 0 W/m 23,2 km/h (4 Bft)
05.02.2014 03:28 3,8 C 2,2 C 90 % 999,4 hPa 0,0 l/m 0 min 0 min 0,0 UV-I 0 W/m 25,7 km/h (4 Bft)
05.02.2014 03:30 3,7 C 2,2 C 90 % 999,4 hPa 0,0 l/m 0 min 0 min 0,0 UV-I 0 W/m 28,3 km/h (4 Bft)
05.02.2014 03:32 3,7 C 2,2 C 90 % 999,3 hPa 0,0 l/m 0 min 0 min 0,0 UV-I 0 W/m 33,5 km/h (5 Bft)
05.02.2014 03:34 3,7 C 2,2 C 90 % 999,3 hPa 0,0 l/m 0 min 0 min 0,0 UV-I 0 W/m 30,9 km/h (5 Bft)
05.02.2014 03:36 3,7 C 2,2 C 90 % 999,2 hPa 0,0 l/m 0 min 0 min 0,0 UV-I 0 W/m 28,3 km/h (4 Bft)
05.02.2014 03:38 3,8 C 2,2 C 90 % 999,1 hPa 0,0 l/m 0 min 0 min 0,0 UV-I 0 W/m 38,6 km/h (5 Bft)
05.02.2014 03:40 3,8 C 2,2 C 90 % 999,1 hPa 0,0 l/m 0 min 0 min 0,0 UV-I 0 W/m 30,9 km/h (5 Bft)
05.02.2014 03:42 3,8 C 2,2 C 90 % 999,2 hPa 0,0 l/m 0 min 0 min 0,0 UV-I 0 W/m 25,7 km/h (4 Bft)
05.02.2014 03:44 3,8 C 2,2 C 90 % 999,0 hPa 0,0 l/m 0 min 0 min 0,0 UV-I 0 W/m 23,2 km/h (4 Bft)
05.02.2014 03:46 3,8 C 2,2 C 90 % 999,1 hPa 0,0 l/m 0 min 0 min 0,0 UV-I 0 W/m 30,9 km/h (5 Bft)
05.02.2014 03:48 3,8 C 2,2 C 90 % 998,9 hPa 0,0 l/m 0 min 0 min 0,0 UV-I 0 W/m 20,6 km/h (4 Bft)
05.02.2014 03:50 3,8 C 2,2 C 90 % 998,8 hPa 0,0 l/m 0 min 0 min 0,0 UV-I 0 W/m 23,2 km/h (4 Bft)
05.02.2014 03:52 3,8 C 2,2 C 89 % 998,8 hPa 0,0 l/m 0 min 0 min 0,0 UV-I 0 W/m 38,6 km/h (5 Bft)
05.02.2014 03:54 3,8 C 2,2 C 89 % 998,8 hPa 0,0 l/m 0 min 0 min 0,0 UV-I 0 W/m 20,6 km/h (4 Bft)
05.02.2014 03:56 3,8 C 2,2 C 89 % 998,8 hPa 0,0 l/m 0 min 0 min 0,0 UV-I 0 W/m 23,2 km/h (4 Bft)
05.02.2014 03:58 3,8 C 2,2 C 89 % 998,7 hPa 0,0 l/m 0 min 0 min 0,0 UV-I 0 W/m 20,6 km/h (4 Bft)
05.02.2014 04:00 3,8 C 2,2 C 89 % 998,7 hPa 0,0 l/m 0 min 0 min 0,0 UV-I 0 W/m 23,2 km/h (4 Bft)
05.02.2014 04:02 3,8 C 2,2 C 89 % 998,6 hPa 0,0 l/m 0 min 0 min 0,0 UV-I 0 W/m 20,6 km/h (4 Bft)
05.02.2014 04:04 3,8 C 2,2 C 89 % 998,5 hPa 0,0 l/m 0 min 0 min 0,0 UV-I 0 W/m 33,5 km/h (5 Bft)
05.02.2014 04:06 3,8 C 2,2 C 89 % 998,3 hPa 0,0 l/m 0 min 0 min 0,0 UV-I 0 W/m 25,7 km/h (4 Bft)
05.02.2014 04:08 3,8 C 2,2 C 89 % 998,4 hPa 0,0 l/m 0 min 0 min 0,0 UV-I 0 W/m 18,0 km/h (3 Bft)
05.02.2014 04:10 3,8 C 2,2 C 89 % 998,4 hPa 0,0 l/m 0 min 0 min 0,0 UV-I 0 W/m 23,2 km/h (4 Bft)
05.02.2014 04:12 3,8 C 2,2 C 89 % 998,4 hPa 0,0 l/m 0 min 0 min 0,0 UV-I 0 W/m 30,9 km/h (5 Bft)
05.02.2014 04:14 3,8 C 2,2 C 89 % 998,4 hPa 0,0 l/m 0 min 0 min 0,0 UV-I 0 W/m 20,6 km/h (4 Bft)
05.02.2014 04:16 3,8 C 2,2 C 89 % 998,2 hPa 0,0 l/m 0 min 0 min 0,0 UV-I 0 W/m 12,9 km/h (3 Bft)
05.02.2014 04:18 3,8 C 2,2 C 89 % 998,3 hPa 0,0 l/m 0 min 0 min 0,0 UV-I 0 W/m 23,2 km/h (4 Bft)
05.02.2014 04:20 3,8 C 2,2 C 89 % 998,3 hPa 0,0 l/m 0 min 0 min 0,0 UV-I 0 W/m 23,2 km/h (4 Bft)
05.02.2014 04:22 3,8 C 2,2 C 89 % 998,3 hPa 0,0 l/m 0 min 0 min 0,0 UV-I 0 W/m 23,2 km/h (4 Bft)
05.02.2014 04:24 3,8 C 2,2 C 89 % 998,2 hPa 0,0 l/m 0 min 0 min 0,0 UV-I 0 W/m 18,0 km/h (3 Bft)
05.02.2014 04:26 3,8 C 2,2 C 89 % 998,4 hPa 0,0 l/m 0 min 0 min 0,0 UV-I 0 W/m 25,7 km/h (4 Bft)
05.02.2014 04:28 3,8 C 2,2 C 89 % 998,3 hPa 0,0 l/m 0 min 0 min 0,0 UV-I 0 W/m 28,3 km/h (4 Bft)
05.02.2014 04:30 3,8 C 2,2 C 89 % 998,2 hPa 0,0 l/m 0 min 0 min 0,0 UV-I 0 W/m 18,0 km/h (3 Bft)
05.02.2014 04:32 3,9 C 2,2 C 89 % 998,2 hPa 0,0 l/m 0 min 0 min 0,0 UV-I 0 W/m 36,0 km/h (5 Bft)
05.02.2014 04:34 3,9 C 2,2 C 89 % 998,1 hPa 0,0 l/m 0 min 0 min 0,0 UV-I 0 W/m 23,2 km/h (4 Bft)
05.02.2014 04:36 3,9 C 2,2 C 88 % 998,1 hPa 0,0 l/m 0 min 0 min 0,0 UV-I 0 W/m 25,7 km/h (4 Bft)
05.02.2014 04:38 3,9 C 2,2 C 88 % 998,1 hPa 0,0 l/m 0 min 0 min 0,0 UV-I 0 W/m 15,4 km/h (3 Bft)
05.02.2014 04:40 3,8 C 2,2 C 88 % 998,1 hPa 0,0 l/m 0 min 0 min 0,0 UV-I 0 W/m 28,3 km/h (4 Bft)
05.02.2014 04:42 3,8 C 2,2 C 88 % 998,0 hPa 0,0 l/m 0 min 0 min 0,0 UV-I 0 W/m 33,5 km/h (5 Bft)
05.02.2014 04:44 3,8 C 2,2 C 88 % 998,0 hPa 0,0 l/m 0 min 0 min 0,0 UV-I 0 W/m 23,2 km/h (4 Bft)
05.02.2014 04:46 3,8 C 2,2 C 88 % 998,0 hPa 0,0 l/m 0 min 0 min 0,0 UV-I 0 W/m 30,9 km/h (5 Bft)
05.02.2014 04:48 3,8 C 2,2 C 88 % 998,0 hPa 0,0 l/m 0 min 0 min 0,0 UV-I 0 W/m 20,6 km/h (4 Bft)
05.02.2014 04:50 3,8 C 2,2 C 88 % 998,0 hPa 0,0 l/m 0 min 0 min 0,0 UV-I 0 W/m 23,2 km/h (4 Bft)
05.02.2014 04:52 3,8 C 2,2 C 88 % 998,0 hPa 0,0 l/m 0 min 0 min 0,0 UV-I 0 W/m 18,0 km/h (3 Bft)
05.02.2014 04:54 3,8 C 2,2 C 88 % 998,0 hPa 0,0 l/m 0 min 0 min 0,0 UV-I 0 W/m 25,7 km/h (4 Bft)
05.02.2014 04:56 3,8 C 2,2 C 88 % 998,0 hPa 0,0 l/m 0 min 0 min 0,0 UV-I 0 W/m 25,7 km/h (4 Bft)
05.02.2014 04:58 3,8 C 2,2 C 88 % 997,9 hPa 0,0 l/m 0 min 0 min 0,0 UV-I 0 W/m 20,6 km/h (4 Bft)
05.02.2014 05:00 3,8 C 2,2 C 88 % 997,9 hPa 0,0 l/m 0 min 0 min 0,0 UV-I 0 W/m 23,2 km/h (4 Bft)
05.02.2014 05:02 3,9 C 2,2 C 88 % 998,0 hPa 0,0 l/m 0 min 0 min 0,0 UV-I 0 W/m 20,6 km/h (4 Bft)
05.02.2014 05:04 3,9 C 2,2 C 88 % 998,0 hPa 0,0 l/m 0 min 0 min 0,0 UV-I 0 W/m 25,7 km/h (4 Bft)
05.02.2014 05:06 3,9 C 2,2 C 88 % 998,0 hPa 0,0 l/m 0 min 0 min 0,0 UV-I 0 W/m 28,3 km/h (4 Bft)
05.02.2014 05:08 3,9 C 2,2 C 88 % 997,9 hPa 0,0 l/m 0 min 0 min 0,0 UV-I 0 W/m 23,2 km/h (4 Bft)
05.02.2014 05:10 3,9 C 2,2 C 88 % 998,0 hPa 0,0 l/m 0 min 0 min 0,0 UV-I 0 W/m 20,6 km/h (4 Bft)
05.02.2014 05:12 3,9 C 2,2 C 88 % 997,9 hPa 0,0 l/m 0 min 0 min 0,0 UV-I 0 W/m 18,0 km/h (3 Bft)
05.02.2014 05:14 3,9 C 2,2 C 88 % 997,9 hPa 0,0 l/m 0 min 0 min 0,0 UV-I 0 W/m 23,2 km/h (4 Bft)
05.02.2014 05:16 3,9 C 2,2 C 88 % 997,8 hPa 0,0 l/m 0 min 0 min 0,0 UV-I 0 W/m 23,2 km/h (4 Bft)
05.02.2014 05:18 3,9 C 2,2 C 88 % 997,9 hPa 0,0 l/m 0 min 0 min 0,0 UV-I 0 W/m 33,5 km/h (5 Bft)
05.02.2014 05:20 3,9 C 2,2 C 88 % 997,9 hPa 0,0 l/m 0 min 0 min 0,0 UV-I 0 W/m 23,2 km/h (4 Bft)
05.02.2014 05:22 3,9 C 2,2 C 88 % 997,8 hPa 0,0 l/m 0 min 0 min 0,0 UV-I 0 W/m 18,0 km/h (3 Bft)
05.02.2014 05:24 3,9 C 2,2 C 88 % 997,8 hPa 0,0 l/m 0 min 0 min 0,0 UV-I 0 W/m 23,2 km/h (4 Bft)
05.02.2014 05:26 4,0 C 2,2 C 88 % 997,8 hPa 0,0 l/m 0 min 0 min 0,0 UV-I 0 W/m 25,7 km/h (4 Bft)
05.02.2014 05:28 4,0 C 2,2 C 88 % 997,8 hPa 0,0 l/m 0 min 0 min 0,0 UV-I 0 W/m 23,2 km/h (4 Bft)
05.02.2014 05:30 4,0 C 2,2 C 88 % 997,8 hPa 0,0 l/m 0 min 0 min 0,0 UV-I 0 W/m 20,6 km/h (4 Bft)
05.02.2014 05:32 4,1 C 2,2 C 88 % 997,7 hPa 0,0 l/m 0 min 0 min 0,0 UV-I 0 W/m 25,7 km/h (4 Bft)
05.02.2014 05:34 4,1 C 2,2 C 88 % 997,6 hPa 0,0 l/m 0 min 0 min 0,0 UV-I 0 W/m 25,7 km/h (4 Bft)
05.02.2014 05:36 4,1 C 2,2 C 88 % 997,7 hPa 0,0 l/m 0 min 0 min 0,0 UV-I 0 W/m 20,6 km/h (4 Bft)
05.02.2014 05:38 4,1 C 2,2 C 88 % 997,5 hPa 0,0 l/m 0 min 0 min 0,0 UV-I 0 W/m 30,9 km/h (5 Bft)
05.02.2014 05:40 4,1 C 2,2 C 88 % 997,5 hPa 0,0 l/m 0 min 0 min 0,0 UV-I 0 W/m 38,6 km/h (5 Bft)
05.02.2014 05:42 4,1 C 2,8 C 88 % 997,5 hPa 0,0 l/m 0 min 0 min 0,0 UV-I 0 W/m 30,9 km/h (5 Bft)
05.02.2014 05:44 4,1 C 2,8 C 87 % 997,3 hPa 0,0 l/m 0 min 0 min 0,0 UV-I 0 W/m 25,7 km/h (4 Bft)
05.02.2014 05:46 4,1 C 2,2 C 87 % 997,2 hPa 0,0 l/m 0 min 0 min 0,0 UV-I 0 W/m 23,2 km/h (4 Bft)
05.02.2014 05:48 4,1 C 2,2 C 87 % 997,1 hPa 0,0 l/m 0 min 0 min 0,0 UV-I 0 W/m 33,5 km/h (5 Bft)
05.02.2014 05:50 4,1 C 2,2 C 87 % 997,1 hPa 0,0 l/m 0 min 0 min 0,0 UV-I 0 W/m 25,7 km/h (4 Bft)
05.02.2014 05:52 4,1 C 2,2 C 87 % 996,9 hPa 0,0 l/m 0 min 0 min 0,0 UV-I 0 W/m 28,3 km/h (4 Bft)
05.02.2014 05:54 4,1 C 2,2 C 87 % 996,7 hPa 0,0 l/m 0 min 0 min 0,0 UV-I 0 W/m 30,9 km/h (5 Bft)
05.02.2014 05:56 4,1 C 2,2 C 87 % 996,8 hPa 0,0 l/m 0 min 0 min 0,0 UV-I 0 W/m 20,6 km/h (4 Bft)
05.02.2014 05:58 4,1 C 2,8 C 87 % 996,8 hPa 0,0 l/m 0 min 0 min 0,0 UV-I 0 W/m 28,3 km/h (4 Bft)
05.02.2014 06:00 4,1 C 2,8 C 87 % 996,7 hPa 0,0 l/m 0 min 0 min 0,0 UV-I 0 W/m 38,6 km/h (5 Bft)
05.02.2014 06:02 4,1 C 2,8 C 87 % 996,7 hPa 0,0 l/m 0 min 0 min 0,0 UV-I 0 W/m 36,0 km/h (5 Bft)
05.02.2014 06:04 4,1 C 2,8 C 87 % 996,8 hPa 0,0 l/m 0 min 0 min 0,0 UV-I 0 W/m 23,2 km/h (4 Bft)
05.02.2014 06:06 4,2 C 2,8 C 87 % 996,9 hPa 0,0 l/m 0 min 0 min 0,0 UV-I 0 W/m 23,2 km/h (4 Bft)
05.02.2014 06:08 4,2 C 2,8 C 87 % 996,9 hPa 0,0 l/m 0 min 0 min 0,0 UV-I 0 W/m 20,6 km/h (4 Bft)
05.02.2014 06:10 4,2 C 2,8 C 87 % 996,7 hPa 0,0 l/m 0 min 0 min 0,0 UV-I 0 W/m 25,7 km/h (4 Bft)
05.02.2014 06:12 4,2 C 2,8 C 87 % 996,8 hPa 0,0 l/m 0 min 0 min 0,0 UV-I 0 W/m 28,3 km/h (4 Bft)
05.02.2014 06:14 4,2 C 2,8 C 87 % 996,9 hPa 0,0 l/m 0 min 0 min 0,0 UV-I 0 W/m 36,0 km/h (5 Bft)
05.02.2014 06:16 4,2 C 2,8 C 87 % 996,7 hPa 0,0 l/m 0 min 0 min 0,0 UV-I 0 W/m 20,6 km/h (4 Bft)
05.02.2014 06:18 4,3 C 2,8 C 87 % 996,8 hPa 0,0 l/m 0 min 0 min 0,0 UV-I 0 W/m 25,7 km/h (4 Bft)
05.02.2014 06:20 4,3 C 2,8 C 87 % 996,8 hPa 0,0 l/m 0 min 0 min 0,0 UV-I 0 W/m 23,2 km/h (4 Bft)
05.02.2014 06:22 4,3 C 2,8 C 87 % 996,8 hPa 0,0 l/m 0 min 0 min 0,0 UV-I 0 W/m 15,4 km/h (3 Bft)
05.02.2014 06:24 4,2 C 2,8 C 87 % 996,8 hPa 0,0 l/m 0 min 0 min 0,0 UV-I 0 W/m 30,9 km/h (5 Bft)
05.02.2014 06:26 4,2 C 2,8 C 87 % 996,8 hPa 0,0 l/m 0 min 0 min 0,0 UV-I 0 W/m 28,3 km/h (4 Bft)
05.02.2014 06:28 4,2 C 2,8 C 87 % 996,7 hPa 0,0 l/m 0 min 0 min 0,0 UV-I 0 W/m 25,7 km/h (4 Bft)
05.02.2014 06:30 4,2 C 2,8 C 87 % 996,7 hPa 0,0 l/m 0 min 0 min 0,0 UV-I 0 W/m 25,7 km/h (4 Bft)
05.02.2014 06:32 4,2 C 2,8 C 87 % 996,7 hPa 0,0 l/m 0 min 0 min 0,0 UV-I 0 W/m 28,3 km/h (4 Bft)
05.02.2014 06:34 4,2 C 2,8 C 87 % 996,7 hPa 0,0 l/m 0 min 0 min 0,0 UV-I 0 W/m 23,2 km/h (4 Bft)
05.02.2014 06:36 4,2 C 2,8 C 87 % 996,7 hPa 0,0 l/m 0 min 0 min 0,0 UV-I 0 W/m 33,5 km/h (5 Bft)
05.02.2014 06:38 4,3 C 2,8 C 87 % 996,7 hPa 0,0 l/m 0 min 0 min 0,0 UV-I 0 W/m 23,2 km/h (4 Bft)
05.02.2014 06:40 4,3 C 2,8 C 87 % 996,7 hPa 0,0 l/m 0 min 0 min 0,0 UV-I 0 W/m 23,2 km/h (4 Bft)
05.02.2014 06:42 4,3 C 2,8 C 87 % 996,7 hPa 0,0 l/m 0 min 0 min 0,0 UV-I 0 W/m 36,0 km/h (5 Bft)
05.02.2014 06:44 4,3 C 2,8 C 87 % 996,6 hPa 0,0 l/m 0 min 0 min 0,0 UV-I 0 W/m 36,0 km/h (5 Bft)
05.02.2014 06:46 4,3 C 2,8 C 87 % 996,7 hPa 0,0 l/m 0 min 0 min 0,0 UV-I 0 W/m 28,3 km/h (4 Bft)
05.02.2014 06:48 4,4 C 2,8 C 87 % 996,6 hPa 0,0 l/m 0 min 0 min 0,0 UV-I 0 W/m 23,2 km/h (4 Bft)
05.02.2014 06:50 4,4 C 2,8 C 87 % 996,7 hPa 0,0 l/m 0 min 0 min 0,0 UV-I 0 W/m 33,5 km/h (5 Bft)
05.02.2014 06:52 4,4 C 2,8 C 87 % 996,7 hPa 0,0 l/m 0 min 0 min 0,0 UV-I 0 W/m 25,7 km/h (4 Bft)
05.02.2014 06:54 4,4 C 2,8 C 86 % 996,7 hPa 0,0 l/m 0 min 0 min 0,0 UV-I 0 W/m 18,0 km/h (3 Bft)
05.02.2014 06:56 4,4 C 2,8 C 86 % 996,7 hPa 0,0 l/m 0 min 0 min 0,0 UV-I 0 W/m 33,5 km/h (5 Bft)
05.02.2014 06:58 4,4 C 2,8 C 86 % 996,7 hPa 0,0 l/m 0 min 0 min 0,0 UV-I 0 W/m 41,2 km/h (6 Bft)
05.02.2014 07:00 4,4 C 2,8 C 86 % 996,6 hPa 0,0 l/m 0 min 0 min 0,0 UV-I 0 W/m 28,3 km/h (4 Bft)
05.02.2014 07:02 4,4 C 3,3 C 86 % 996,6 hPa 0,0 l/m 0 min 0 min 0,0 UV-I 0 W/m 38,6 km/h (5 Bft)
05.02.2014 07:04 4,4 C 3,3 C 86 % 996,6 hPa 0,0 l/m 0 min 0 min 0,0 UV-I 0 W/m 43,8 km/h (6 Bft)
05.02.2014 07:06 4,4 C 3,3 C 86 % 996,5 hPa 0,0 l/m 0 min 0 min 0,0 UV-I 0 W/m 43,8 km/h (6 Bft)
05.02.2014 07:08 4,4 C 3,3 C 86 % 996,5 hPa 0,0 l/m 0 min 0 min 0,0 UV-I 0 W/m 23,2 km/h (4 Bft)
05.02.2014 07:10 4,4 C 2,8 C 86 % 996,6 hPa 0,0 l/m 0 min 0 min 0,0 UV-I 0 W/m 23,2 km/h (4 Bft)
05.02.2014 07:12 4,4 C 2,8 C 86 % 996,6 hPa 0,0 l/m 0 min 0 min 0,0 UV-I 0 W/m 18,0 km/h (3 Bft)
05.02.2014 07:14 4,4 C 2,8 C 86 % 996,6 hPa 0,0 l/m 0 min 0 min 0,0 UV-I 0 W/m 36,0 km/h (5 Bft)
05.02.2014 07:16 4,4 C 2,8 C 86 % 996,6 hPa 0,0 l/m 0 min 0 min 0,0 UV-I 0 W/m 25,7 km/h (4 Bft)
05.02.2014 07:18 4,4 C 2,8 C 86 % 996,5 hPa 0,0 l/m 0 min 0 min 0,0 UV-I 0 W/m 36,0 km/h (5 Bft)
05.02.2014 07:20 4,4 C 2,8 C 86 % 996,5 hPa 0,0 l/m 0 min 0 min 0,0 UV-I 0 W/m 23,2 km/h (4 Bft)
05.02.2014 07:22 4,4 C 2,8 C 86 % 996,5 hPa 0,0 l/m 0 min 0 min 0,0 UV-I 0 W/m 30,9 km/h (5 Bft)
05.02.2014 07:24 4,4 C 2,8 C 86 % 996,4 hPa 0,0 l/m 0 min 0 min 0,0 UV-I 0 W/m 25,7 km/h (4 Bft)
05.02.2014 07:26 4,4 C 2,8 C 86 % 996,4 hPa 0,0 l/m 0 min 0 min 0,0 UV-I 0 W/m 25,7 km/h (4 Bft)
05.02.2014 07:28 4,4 C 2,8 C 86 % 996,3 hPa 0,0 l/m 0 min 0 min 0,0 UV-I 0 W/m 28,3 km/h (4 Bft)
05.02.2014 07:30 4,4 C 2,8 C 86 % 996,3 hPa 0,0 l/m 0 min 0 min 0,0 UV-I 0 W/m 25,7 km/h (4 Bft)
05.02.2014 07:32 4,4 C 2,8 C 86 % 996,3 hPa 0,0 l/m 0 min 0 min 0,0 UV-I 0 W/m 28,3 km/h (4 Bft)
05.02.2014 07:34 4,4 C 3,3 C 86 % 996,3 hPa 0,0 l/m 0 min 0 min 0,0 UV-I 0 W/m 23,2 km/h (4 Bft)
05.02.2014 07:36 4,4 C 3,3 C 86 % 996,4 hPa 0,0 l/m 0 min 0 min 0,0 UV-I 0 W/m 33,5 km/h (5 Bft)
05.02.2014 07:38 4,4 C 3,3 C 86 % 996,4 hPa 0,0 l/m 0 min 0 min 0,0 UV-I 0 W/m 20,6 km/h (4 Bft)
05.02.2014 07:40 4,5 C 3,3 C 86 % 996,4 hPa 0,0 l/m 0 min 0 min 0,0 UV-I 0 W/m 15,4 km/h (3 Bft)
05.02.2014 07:42 4,5 C 3,3 C 86 % 996,3 hPa 0,0 l/m 0 min 0 min 0,0 UV-I 0 W/m 18,0 km/h (3 Bft)
05.02.2014 07:44 4,5 C 3,3 C 86 % 996,3 hPa 0,0 l/m 0 min 0 min 0,0 UV-I 0 W/m 20,6 km/h (4 Bft)
05.02.2014 07:46 4,4 C 3,3 C 86 % 996,3 hPa 0,0 l/m 0 min 0 min 0,0 UV-I 0 W/m 20,6 km/h (4 Bft)
05.02.2014 07:48 4,4 C 3,3 C 86 % 996,3 hPa 0,0 l/m 0 min 0 min 0,0 UV-I 0 W/m 25,7 km/h (4 Bft)
05.02.2014 07:50 4,4 C 3,3 C 86 % 996,3 hPa 0,0 l/m 0 min 0 min 0,0 UV-I 0 W/m 18,0 km/h (3 Bft)
05.02.2014 07:52 4,5 C 3,3 C 86 % 996,5 hPa 0,0 l/m 0 min 0 min 0,0 UV-I 0 W/m 18,0 km/h (3 Bft)
05.02.2014 07:54 4,5 C 3,3 C 86 % 996,4 hPa 0,0 l/m 0 min 0 min 0,0 UV-I 0 W/m 18,0 km/h (3 Bft)
05.02.2014 07:56 4,6 C 3,3 C 86 % 996,4 hPa 0,0 l/m 0 min 0 min 0,0 UV-I 0 W/m 18,0 km/h (3 Bft)
05.02.2014 07:58 4,6 C 3,3 C 86 % 996,4 hPa 0,0 l/m 0 min 2 min 0,0 UV-I 0 W/m 15,4 km/h (3 Bft)
05.02.2014 08:00 4,7 C 3,3 C 85 % 996,4 hPa 0,0 l/m 0 min 2 min 0,0 UV-I 0 W/m 25,7 km/h (4 Bft)
05.02.2014 08:02 4,7 C 2,8 C 85 % 996,4 hPa 0,0 l/m 0 min 2 min 0,0 UV-I 0 W/m 25,7 km/h (4 Bft)
05.02.2014 08:04 4,8 C 2,8 C 85 % 996,3 hPa 0,0 l/m 0 min 2 min 0,0 UV-I 0 W/m 23,2 km/h (4 Bft)
05.02.2014 08:06 4,9 C 2,8 C 85 % 996,4 hPa 0,0 l/m 0 min 2 min 0,0 UV-I 0 W/m 15,4 km/h (3 Bft)
05.02.2014 08:08 4,9 C 2,8 C 86 % 996,4 hPa 0,0 l/m 0 min 2 min 0,0 UV-I 0 W/m 28,3 km/h (4 Bft)
05.02.2014 08:10 4,9 C 2,8 C 86 % 996,5 hPa 0,0 l/m 0 min 2 min 0,0 UV-I 0 W/m 38,6 km/h (5 Bft)
05.02.2014 08:12 4,9 C 2,8 C 86 % 996,3 hPa 0,0 l/m 0 min 2 min 0,0 UV-I 0 W/m 36,0 km/h (5 Bft)
05.02.2014 08:14 4,8 C 2,8 C 86 % 996,3 hPa 0,0 l/m 0 min 2 min 0,0 UV-I 0 W/m 25,7 km/h (4 Bft)
05.02.2014 08:16 4,8 C 2,8 C 86 % 996,4 hPa 0,0 l/m 0 min 2 min 0,0 UV-I 0 W/m 36,0 km/h (5 Bft)
05.02.2014 08:18 4,7 C 2,8 C 87 % 996,4 hPa 0,0 l/m 0 min 2 min 0,0 UV-I 0 W/m 38,6 km/h (5 Bft)
05.02.2014 08:20 4,7 C 2,2 C 87 % 996,4 hPa 0,0 l/m 0 min 2 min 0,0 UV-I 0 W/m 28,3 km/h (4 Bft)
05.02.2014 08:22 4,7 C 2,2 C 87 % 996,4 hPa 0,0 l/m 0 min 2 min 0,0 UV-I 0 W/m 28,3 km/h (4 Bft)
05.02.2014 08:24 4,6 C 2,2 C 87 % 996,3 hPa 0,0 l/m 0 min 2 min 0,0 UV-I 0 W/m 23,2 km/h (4 Bft)
05.02.2014 08:26 4,6 C 2,2 C 87 % 996,4 hPa 0,2 l/m 0 min 2 min 0,0 UV-I 5 W/m 20,6 km/h (4 Bft)
05.02.2014 08:28 4,6 C 2,2 C 88 % 996,4 hPa 0,0 l/m 0 min 2 min 0,0 UV-I 5 W/m 28,3 km/h (4 Bft)
05.02.2014 08:30 4,5 C 2,2 C 88 % 996,3 hPa 0,0 l/m 0 min 2 min 0,0 UV-I 5 W/m 25,7 km/h (4 Bft)
05.02.2014 08:32 4,4 C 2,2 C 88 % 996,3 hPa 0,0 l/m 0 min 2 min 0,0 UV-I 7 W/m 30,9 km/h (5 Bft)
05.02.2014 08:34 4,4 C 2,2 C 88 % 996,3 hPa 0,0 l/m 0 min 0 min 0,0 UV-I 7 W/m 30,9 km/h (5 Bft)
05.02.2014 08:36 4,4 C 2,2 C 88 % 996,4 hPa 0,0 l/m 0 min 2 min 0,0 UV-I 7 W/m 23,2 km/h (4 Bft)
05.02.2014 08:38 4,4 C 2,2 C 88 % 996,3 hPa 0,0 l/m 0 min 2 min 0,0 UV-I 9 W/m 36,0 km/h (5 Bft)
05.02.2014 08:40 4,4 C 2,2 C 88 % 996,3 hPa 0,0 l/m 0 min 2 min 0,0 UV-I 9 W/m 28,3 km/h (4 Bft)
05.02.2014 08:42 4,4 C 2,2 C 88 % 996,3 hPa 0,0 l/m 0 min 0 min 0,0 UV-I 11 W/m 15,4 km/h (3 Bft)
05.02.2014 08:44 4,4 C 2,8 C 89 % 996,3 hPa 0,0 l/m 0 min 2 min 0,0 UV-I 11 W/m 25,7 km/h (4 Bft)
05.02.2014 08:46 4,5 C 2,8 C 89 % 996,3 hPa 0,0 l/m 0 min 2 min 0,0 UV-I 11 W/m 23,2 km/h (4 Bft)
05.02.2014 08:48 4,5 C 2,8 C 89 % 996,3 hPa 0,0 l/m 0 min 2 min 0,0 UV-I 12 W/m 25,7 km/h (4 Bft)
05.02.2014 08:50 4,6 C 2,8 C 89 % 996,3 hPa 0,0 l/m 0 min 2 min 0,0 UV-I 14 W/m 18,0 km/h (3 Bft)
05.02.2014 08:52 4,6 C 2,8 C 89 % 996,3 hPa 0,0 l/m 0 min 2 min 0,0 UV-I 14 W/m 20,6 km/h (4 Bft)
05.02.2014 08:54 4,6 C 2,8 C 89 % 996,3 hPa 0,0 l/m 0 min 0 min 0,0 UV-I 12 W/m 25,7 km/h (4 Bft)
05.02.2014 08:56 4,6 C 2,8 C 89 % 996,4 hPa 0,0 l/m 0 min 0 min 0,0 UV-I 12 W/m 15,4 km/h (3 Bft)
05.02.2014 08:58 4,7 C 2,8 C 88 % 996,3 hPa 0,0 l/m 0 min 2 min 0,0 UV-I 12 W/m 28,3 km/h (4 Bft)
05.02.2014 09:00 4,8 C 2,8 C 88 % 996,4 hPa 0,0 l/m 0 min 2 min 0,0 UV-I 14 W/m 28,3 km/h (4 Bft)
05.02.2014 09:02 4,8 C 2,8 C 88 % 996,4 hPa 0,0 l/m 0 min 2 min 0,0 UV-I 16 W/m 18,0 km/h (3 Bft)
05.02.2014 09:04 4,9 C 2,8 C 88 % 996,3 hPa 0,0 l/m 0 min 2 min 0,0 UV-I 19 W/m 20,6 km/h (4 Bft)
05.02.2014 09:06 4,9 C 2,8 C 88 % 996,2 hPa 0,0 l/m 0 min 2 min 0,0 UV-I 25 W/m 25,7 km/h (4 Bft)
05.02.2014 09:08 5,0 C 2,8 C 88 % 996,3 hPa 0,0 l/m 0 min 2 min 0,0 UV-I 26 W/m 30,9 km/h (5 Bft)
05.02.2014 09:10 5,1 C 2,8 C 88 % 996,2 hPa 0,0 l/m 0 min 2 min 0,0 UV-I 33 W/m 15,4 km/h (3 Bft)
05.02.2014 09:12 5,1 C 2,8 C 88 % 996,0 hPa 0,0 l/m 0 min 2 min 0,0 UV-I 37 W/m 36,0 km/h (5 Bft)
05.02.2014 09:14 5,1 C 2,8 C 88 % 995,9 hPa 0,0 l/m 0 min 2 min 0,0 UV-I 39 W/m 23,2 km/h (4 Bft)
05.02.2014 09:16 5,1 C 2,8 C 88 % 995,9 hPa 0,0 l/m 0 min 2 min 0,0 UV-I 40 W/m 18,0 km/h (3 Bft)
05.02.2014 09:18 5,1 C 2,8 C 88 % 995,8 hPa 0,0 l/m 0 min 2 min 0,0 UV-I 42 W/m 25,7 km/h (4 Bft)
05.02.2014 09:20 5,1 C 2,8 C 88 % 995,9 hPa 0,0 l/m 0 min 0 min 0,0 UV-I 42 W/m 20,6 km/h (4 Bft)
05.02.2014 09:22 5,1 C 2,8 C 88 % 996,0 hPa 0,0 l/m 0 min 0 min 0,0 UV-I 42 W/m 28,3 km/h (4 Bft)
05.02.2014 09:24 5,1 C 3,3 C 88 % 995,9 hPa 0,0 l/m 0 min 2 min 0,0 UV-I 40 W/m 33,5 km/h (5 Bft)
05.02.2014 09:26 5,1 C 3,3 C 88 % 996,1 hPa 0,0 l/m 0 min 2 min 0,0 UV-I 37 W/m 28,3 km/h (4 Bft)
05.02.2014 09:28 5,2 C 3,3 C 88 % 996,0 hPa 0,0 l/m 0 min 0 min 0,0 UV-I 35 W/m 15,4 km/h (3 Bft)
05.02.2014 09:30 5,2 C 3,3 C 88 % 996,0 hPa 0,0 l/m 0 min 0 min 0,0 UV-I 37 W/m 20,6 km/h (4 Bft)
05.02.2014 09:32 5,2 C 3,3 C 88 % 996,0 hPa 0,0 l/m 0 min 0 min 0,0 UV-I 40 W/m 20,6 km/h (4 Bft)
05.02.2014 09:34 5,2 C 3,3 C 87 % 996,1 hPa 0,0 l/m 0 min 0 min 0,0 UV-I 44 W/m 30,9 km/h (5 Bft)
05.02.2014 09:36 5,2 C 3,3 C 87 % 996,0 hPa 0,0 l/m 0 min 2 min 0,0 UV-I 54 W/m 43,8 km/h (6 Bft)
05.02.2014 09:38 5,2 C 3,3 C 87 % 996,1 hPa 0,0 l/m 0 min 2 min 0,0 UV-I 60 W/m 20,6 km/h (4 Bft)
05.02.2014 09:40 5,2 C 3,3 C 87 % 996,1 hPa 0,0 l/m 0 min 0 min 0,0 UV-I 63 W/m 20,6 km/h (4 Bft)
05.02.2014 09:42 5,2 C 3,3 C 87 % 996,1 hPa 0,0 l/m 0 min 0 min 0,0 UV-I 63 W/m 20,6 km/h (4 Bft)
05.02.2014 09:44 5,2 C 3,3 C 87 % 996,1 hPa 0,0 l/m 0 min 0 min 0,0 UV-I 60 W/m 25,7 km/h (4 Bft)
05.02.2014 09:46 5,2 C 3,3 C 87 % 996,1 hPa 0,0 l/m 0 min 0 min 0,0 UV-I 53 W/m 25,7 km/h (4 Bft)
05.02.2014 09:48 5,3 C 3,3 C 87 % 996,2 hPa 0,0 l/m 0 min 2 min 0,0 UV-I 53 W/m 20,6 km/h (4 Bft)
05.02.2014 09:50 5,4 C 3,3 C 87 % 996,1 hPa 0,0 l/m 0 min 0 min 0,0 UV-I 53 W/m 23,2 km/h (4 Bft)
05.02.2014 09:52 5,5 C 3,3 C 87 % 996,2 hPa 0,0 l/m 0 min 0 min 0,0 UV-I 56 W/m 28,3 km/h (4 Bft)
05.02.2014 09:54 5,6 C 3,9 C 87 % 996,2 hPa 0,0 l/m 0 min 0 min 0,0 UV-I 58 W/m 30,9 km/h (5 Bft)
05.02.2014 09:56 5,7 C 3,9 C 87 % 996,2 hPa 0,0 l/m 0 min 0 min 0,0 UV-I 62 W/m 28,3 km/h (4 Bft)
05.02.2014 09:58 5,7 C 3,9 C 86 % 996,2 hPa 0,0 l/m 0 min 0 min 0,0 UV-I 67 W/m 30,9 km/h (5 Bft)
05.02.2014 10:00 5,8 C 3,9 C 86 % 996,2 hPa 0,0 l/m 0 min 0 min 0,0 UV-I 69 W/m 43,8 km/h (6 Bft)
05.02.2014 10:02 5,8 C 3,9 C 86 % 996,2 hPa 0,0 l/m 0 min 0 min 0,0 UV-I 69 W/m 23,2 km/h (4 Bft)
05.02.2014 10:04 5,9 C 3,9 C 85 % 996,2 hPa 0,0 l/m 0 min 0 min 0,0 UV-I 72 W/m 23,2 km/h (4 Bft)
05.02.2014 10:06 5,9 C 3,9 C 85 % 996,2 hPa 0,0 l/m 0 min 0 min 0,0 UV-I 76 W/m 25,7 km/h (4 Bft)
05.02.2014 10:08 5,9 C 3,9 C 85 % 996,1 hPa 0,0 l/m 0 min 0 min 0,0 UV-I 81 W/m 18,0 km/h (3 Bft)
05.02.2014 10:10 5,9 C 4,4 C 85 % 996,2 hPa 0,0 l/m 0 min 0 min 0,0 UV-I 84 W/m 33,5 km/h (5 Bft)
05.02.2014 10:12 5,9 C 4,4 C 85 % 996,3 hPa 0,0 l/m 0 min 0 min 0,0 UV-I 81 W/m 28,3 km/h (4 Bft)
05.02.2014 10:14 6,0 C 4,4 C 85 % 996,2 hPa 0,0 l/m 0 min 0 min 0,0 UV-I 76 W/m 28,3 km/h (4 Bft)
05.02.2014 10:16 6,0 C 4,4 C 85 % 996,2 hPa 0,0 l/m 0 min 0 min 0,0 UV-I 74 W/m 23,2 km/h (4 Bft)
05.02.2014 10:18 6,1 C 4,4 C 84 % 996,2 hPa 0,0 l/m 0 min 0 min 0,0 UV-I 81 W/m 28,3 km/h (4 Bft)
05.02.2014 10:20 6,1 C 4,4 C 84 % 996,2 hPa 0,0 l/m 0 min 0 min 0,0 UV-I 91 W/m 33,5 km/h (5 Bft)
05.02.2014 10:22 6,1 C 4,4 C 84 % 996,2 hPa 0,0 l/m 0 min 0 min 0,0 UV-I 109 W/m 28,3 km/h (4 Bft)
05.02.2014 10:24 6,1 C 4,4 C 84 % 996,2 hPa 0,0 l/m 0 min 0 min 0,0 UV-I 116 W/m 30,9 km/h (5 Bft)
05.02.2014 10:26 6,1 C 4,4 C 84 % 996,1 hPa 0,0 l/m 0 min 0 min 0,0 UV-I 111 W/m 38,6 km/h (5 Bft)
05.02.2014 10:28 6,2 C 4,4 C 84 % 996,2 hPa 0,0 l/m 0 min 0 min 0,0 UV-I 91 W/m 25,7 km/h (4 Bft)
05.02.2014 10:30 6,2 C 4,4 C 84 % 996,2 hPa 0,0 l/m 0 min 0 min 0,0 UV-I 84 W/m 33,5 km/h (5 Bft)
05.02.2014 10:32 6,2 C 4,4 C 84 % 996,2 hPa 0,0 l/m 0 min 0 min 0,0 UV-I 79 W/m 30,9 km/h (5 Bft)
05.02.2014 10:34 6,2 C 4,4 C 84 % 996,2 hPa 0,0 l/m 0 min 0 min 0,0 UV-I 81 W/m 23,2 km/h (4 Bft)
05.02.2014 10:36 6,2 C 4,4 C 84 % 996,1 hPa 0,0 l/m 0 min 0 min 0,0 UV-I 86 W/m 28,3 km/h (4 Bft)
05.02.2014 10:38 6,2 C 4,4 C 84 % 996,1 hPa 0,0 l/m 0 min 0 min 0,0 UV-I 97 W/m 20,6 km/h (4 Bft)
05.02.2014 10:40 6,2 C 5,0 C 84 % 996,1 hPa 0,0 l/m 0 min 0 min 0,0 UV-I 100 W/m 20,6 km/h (4 Bft)
05.02.2014 10:42 6,2 C 5,0 C 84 % 996,0 hPa 0,0 l/m 0 min 0 min 0,0 UV-I 102 W/m 25,7 km/h (4 Bft)
05.02.2014 10:44 6,2 C 5,0 C 84 % 996,2 hPa 0,0 l/m 0 min 0 min 0,0 UV-I 111 W/m 33,5 km/h (5 Bft)
05.02.2014 10:46 6,2 C 5,0 C 84 % 996,1 hPa 0,0 l/m 0 min 0 min 0,0 UV-I 118 W/m 23,2 km/h (4 Bft)
05.02.2014 10:48 6,3 C 5,0 C 84 % 996,1 hPa 0,0 l/m 0 min 0 min 0,0 UV-I 120 W/m 28,3 km/h (4 Bft)
05.02.2014 10:50 6,3 C 5,0 C 84 % 996,2 hPa 0,0 l/m 0 min 0 min 0,0 UV-I 132 W/m 28,3 km/h (4 Bft)
05.02.2014 10:52 6,4 C 5,6 C 84 % 996,2 hPa 0,0 l/m 0 min 0 min 0,0 UV-I 144 W/m 25,7 km/h (4 Bft)
05.02.2014 10:54 6,4 C 5,6 C 84 % 996,0 hPa 0,0 l/m 2 min 0 min 0,0 UV-I 211 W/m 36,0 km/h (5 Bft)
05.02.2014 10:56 6,5 C 5,6 C 84 % 996,0 hPa 0,0 l/m 2 min 0 min 0,0 UV-I 322 W/m 30,9 km/h (5 Bft)
05.02.2014 10:58 6,7 C 6,1 C 84 % 995,8 hPa 0,0 l/m 2 min 0 min 0,0 UV-I 360 W/m 18,0 km/h (3 Bft)
05.02.2014 11:00 6,9 C 6,1 C 84 % 995,9 hPa 0,0 l/m 2 min 0 min 0,0 UV-I 197 W/m 20,6 km/h (4 Bft)
05.02.2014 11:02 6,9 C 6,1 C 83 % 995,9 hPa 0,0 l/m 2 min 0 min 0,0 UV-I 323 W/m 28,3 km/h (4 Bft)
05.02.2014 11:04 7,1 C 6,1 C 83 % 995,9 hPa 0,0 l/m 2 min 0 min 0,0 UV-I 329 W/m 25,7 km/h (4 Bft)
05.02.2014 11:06 7,2 C 6,1 C 83 % 995,8 hPa 0,0 l/m 2 min 0 min 0,0 UV-I 322 W/m 33,5 km/h (5 Bft)
05.02.2014 11:08 7,2 C 6,1 C 82 % 995,8 hPa 0,0 l/m 2 min 0 min 0,0 UV-I 211 W/m 33,5 km/h (5 Bft)
05.02.2014 11:10 7,2 C 5,6 C 82 % 995,8 hPa 0,0 l/m 2 min 0 min 0,0 UV-I 285 W/m 20,6 km/h (4 Bft)
05.02.2014 11:12 7,3 C 5,6 C 82 % 995,9 hPa 0,0 l/m 2 min 0 min 0,0 UV-I 287 W/m 28,3 km/h (4 Bft)
05.02.2014 11:14 7,4 C 5,6 C 82 % 995,8 hPa 0,0 l/m 2 min 0 min 0,0 UV-I 290 W/m 38,6 km/h (5 Bft)
05.02.2014 11:16 7,5 C 5,6 C 81 % 995,8 hPa 0,0 l/m 2 min 0 min 0,0 UV-I 290 W/m 23,2 km/h (4 Bft)
05.02.2014 11:18 7,6 C 6,1 C 82 % 995,8 hPa 0,0 l/m 2 min 0 min 0,0 UV-I 292 W/m 12,9 km/h (3 Bft)
05.02.2014 11:20 7,7 C 6,1 C 82 % 995,8 hPa 0,0 l/m 2 min 0 min 0,0 UV-I 304 W/m 23,2 km/h (4 Bft)
05.02.2014 11:22 7,7 C 6,1 C 82 % 995,8 hPa 0,0 l/m 2 min 0 min 0,0 UV-I 283 W/m 25,7 km/h (4 Bft)
05.02.2014 11:24 7,6 C 5,6 C 81 % 995,7 hPa 0,0 l/m 0 min 0 min 0,0 UV-I 65 W/m 18,0 km/h (3 Bft)
05.02.2014 11:26 7,5 C 5,6 C 81 % 995,6 hPa 0,0 l/m 2 min 0 min 0,0 UV-I 197 W/m 18,0 km/h (3 Bft)
05.02.2014 11:28 7,5 C 6,1 C 81 % 995,6 hPa 0,0 l/m 0 min 0 min 0,0 UV-I 178 W/m 12,9 km/h (3 Bft)
05.02.2014 11:30 7,5 C 5,6 C 81 % 995,6 hPa 0,0 l/m 0 min 0 min 0,0 UV-I 178 W/m 28,3 km/h (4 Bft)
05.02.2014 11:32 7,4 C 5,6 C 81 % 995,6 hPa 0,0 l/m 0 min 0 min 0,0 UV-I 130 W/m 20,6 km/h (4 Bft)
05.02.2014 11:34 7,4 C 5,6 C 81 % 995,6 hPa 0,0 l/m 2 min 0 min 0,0 UV-I 318 W/m 28,3 km/h (4 Bft)
05.02.2014 11:36 7,4 C 5,6 C 81 % 995,6 hPa 0,0 l/m 2 min 0 min 0,0 UV-I 241 W/m 25,7 km/h (4 Bft)
05.02.2014 11:38 7,4 C 6,1 C 82 % 995,6 hPa 0,0 l/m 2 min 0 min 0,0 UV-I 306 W/m 33,5 km/h (5 Bft)
05.02.2014 11:40 7,5 C 6,1 C 82 % 995,6 hPa 0,0 l/m 2 min 0 min 0,0 UV-I 313 W/m 28,3 km/h (4 Bft)
05.02.2014 11:42 7,6 C 6,1 C 81 % 995,5 hPa 0,0 l/m 2 min 0 min 0,0 UV-I 322 W/m 18,0 km/h (3 Bft)
05.02.2014 11:44 7,7 C 6,1 C 81 % 995,5 hPa 0,0 l/m 2 min 0 min 0,0 UV-I 322 W/m 28,3 km/h (4 Bft)
05.02.2014 11:46 7,7 C 6,1 C 81 % 995,5 hPa 0,0 l/m 2 min 0 min 0,0 UV-I 318 W/m 25,7 km/h (4 Bft)
05.02.2014 11:48 7,7 C 6,1 C 81 % 995,5 hPa 0,0 l/m 2 min 0 min 0,0 UV-I 322 W/m 23,2 km/h (4 Bft)
05.02.2014 11:50 7,7 C 6,1 C 80 % 995,4 hPa 0,0 l/m 2 min 0 min 0,0 UV-I 322 W/m 41,2 km/h (6 Bft)
05.02.2014 11:52 7,7 C 6,1 C 80 % 995,4 hPa 0,0 l/m 2 min 0 min 0,0 UV-I 250 W/m 25,7 km/h (4 Bft)
05.02.2014 11:54 7,6 C 6,1 C 80 % 995,3 hPa 0,0 l/m 2 min 0 min 0,0 UV-I 323 W/m 36,0 km/h (5 Bft)
05.02.2014 11:56 7,6 C 6,1 C 80 % 995,3 hPa 0,0 l/m 2 min 0 min 0,0 UV-I 329 W/m 33,5 km/h (5 Bft)
05.02.2014 11:58 7,7 C 6,1 C 80 % 995,6 hPa 0,0 l/m 2 min 0 min 0,0 UV-I 330 W/m 38,6 km/h (5 Bft)
05.02.2014 12:00 7,7 C 6,1 C 80 % 995,6 hPa 0,0 l/m 2 min 0 min 0,0 UV-I 336 W/m 30,9 km/h (5 Bft)
05.02.2014 12:02 7,7 C 6,1 C 80 % 995,4 hPa 0,0 l/m 2 min 0 min 0,0 UV-I 341 W/m 30,9 km/h (5 Bft)
05.02.2014 12:04 7,9 C 6,7 C 80 % 995,4 hPa 0,0 l/m 2 min 0 min 0,0 UV-I 343 W/m 25,7 km/h (4 Bft)
05.02.2014 12:06 7,9 C 6,7 C 80 % 995,5 hPa 0,0 l/m 2 min 0 min 0,0 UV-I 345 W/m 36,0 km/h (5 Bft)
05.02.2014 12:08 8,0 C 6,7 C 79 % 995,3 hPa 0,0 l/m 2 min 0 min 0,0 UV-I 346 W/m 28,3 km/h (4 Bft)
05.02.2014 12:10 8,1 C 6,7 C 80 % 995,3 hPa 0,0 l/m 2 min 0 min 0,0 UV-I 350 W/m 28,3 km/h (4 Bft)
05.02.2014 12:12 8,1 C 6,7 C 79 % 995,3 hPa 0,0 l/m 2 min 0 min 0,0 UV-I 352 W/m 38,6 km/h (5 Bft)
05.02.2014 12:14 8,2 C 6,7 C 79 % 995,2 hPa 0,0 l/m 2 min 0 min 0,0 UV-I 359 W/m 28,3 km/h (4 Bft)
05.02.2014 12:16 8,2 C 6,7 C 79 % 995,2 hPa 0,0 l/m 2 min 0 min 0,0 UV-I 367 W/m 30,9 km/h (5 Bft)
05.02.2014 12:18 8,3 C 6,7 C 79 % 995,3 hPa 0,0 l/m 2 min 0 min 0,0 UV-I 329 W/m 33,5 km/h (5 Bft)
05.02.2014 12:20 8,3 C 6,7 C 79 % 995,2 hPa 0,0 l/m 2 min 0 min 0,0 UV-I 376 W/m 30,9 km/h (5 Bft)
05.02.2014 12:22 8,2 C 6,7 C 79 % 995,2 hPa 0,0 l/m 2 min 0 min 0,0 UV-I 225 W/m 41,2 km/h (6 Bft)
05.02.2014 12:24 7,9 C 6,7 C 79 % 995,2 hPa 0,0 l/m 0 min 0 min 0,0 UV-I 163 W/m 28,3 km/h (4 Bft)
05.02.2014 12:26 7,7 C 6,7 C 79 % 995,2 hPa 0,0 l/m 0 min 0 min 0,0 UV-I 174 W/m 20,6 km/h (4 Bft)
05.02.2014 12:28 7,6 C 6,7 C 80 % 995,1 hPa 0,0 l/m 0 min 0 min 0,0 UV-I 172 W/m 20,6 km/h (4 Bft)
05.02.2014 12:30 7,5 C 6,7 C 81 % 995,1 hPa 0,0 l/m 0 min 0 min 0,0 UV-I 192 W/m 25,7 km/h (4 Bft)
05.02.2014 12:32 7,4 C 6,7 C 81 % 995,2 hPa 0,0 l/m 0 min 0 min 0,0 UV-I 211 W/m 23,2 km/h (4 Bft)
05.02.2014 12:34 7,4 C 6,7 C 81 % 995,1 hPa 0,0 l/m 2 min 0 min 0,0 UV-I 225 W/m 28,3 km/h (4 Bft)
05.02.2014 12:36 7,4 C 6,7 C 81 % 995,1 hPa 0,0 l/m 0 min 0 min 0,0 UV-I 207 W/m 25,7 km/h (4 Bft)
05.02.2014 12:38 7,3 C 6,7 C 81 % 995,2 hPa 0,0 l/m 0 min 0 min 0,0 UV-I 207 W/m 25,7 km/h (4 Bft)
05.02.2014 12:40 7,4 C 6,7 C 82 % 995,1 hPa 0,0 l/m 0 min 0 min 0,0 UV-I 204 W/m 18,0 km/h (3 Bft)
05.02.2014 12:42 7,4 C 6,7 C 82 % 995,2 hPa 0,0 l/m 0 min 0 min 0,0 UV-I 207 W/m 25,7 km/h (4 Bft)
05.02.2014 12:44 7,4 C 7,2 C 82 % 995,1 hPa 0,0 l/m 0 min 0 min 0,0 UV-I 211 W/m 33,5 km/h (5 Bft)
05.02.2014 12:46 7,3 C 6,7 C 81 % 995,1 hPa 0,0 l/m 0 min 0 min 0,0 UV-I 204 W/m 38,6 km/h (5 Bft)
05.02.2014 12:48 7,3 C 6,7 C 82 % 995,2 hPa 0,0 l/m 0 min 0 min 0,0 UV-I 185 W/m 28,3 km/h (4 Bft)
05.02.2014 12:50 7,3 C 7,2 C 82 % 995,2 hPa 0,0 l/m 0 min 0 min 0,0 UV-I 185 W/m 25,7 km/h (4 Bft)
05.02.2014 12:52 7,3 C 6,7 C 82 % 995,2 hPa 0,0 l/m 0 min 0 min 0,0 UV-I 185 W/m 33,5 km/h (5 Bft)
05.02.2014 12:54 7,2 C 6,7 C 82 % 995,1 hPa 0,0 l/m 0 min 0 min 0,0 UV-I 183 W/m 33,5 km/h (5 Bft)
05.02.2014 12:56 7,2 C 6,7 C 82 % 995,1 hPa 0,0 l/m 0 min 0 min 0,0 UV-I 195 W/m 20,6 km/h (4 Bft)
05.02.2014 12:58 7,3 C 7,2 C 82 % 995,1 hPa 0,0 l/m 0 min 0 min 0,0 UV-I 199 W/m 18,0 km/h (3 Bft)
05.02.2014 13:00 7,3 C 7,2 C 82 % 995,0 hPa 0,0 l/m 0 min 0 min 0,0 UV-I 197 W/m 18,0 km/h (3 Bft)
05.02.2014 13:02 7,4 C 7,2 C 82 % 995,0 hPa 0,0 l/m 0 min 0 min 0,0 UV-I 195 W/m 20,6 km/h (4 Bft)
05.02.2014 13:04 7,4 C 7,2 C 82 % 995,0 hPa 0,0 l/m 0 min 0 min 0,0 UV-I 192 W/m 36,0 km/h (5 Bft)
05.02.2014 13:06 7,3 C 7,2 C 82 % 994,9 hPa 0,0 l/m 0 min 0 min 0,0 UV-I 186 W/m 30,9 km/h (5 Bft)
05.02.2014 13:08 7,3 C 7,2 C 82 % 995,0 hPa 0,0 l/m 0 min 0 min 0,0 UV-I 169 W/m 28,3 km/h (4 Bft)
05.02.2014 13:10 7,3 C 7,2 C 82 % 995,1 hPa 0,0 l/m 0 min 0 min 0,0 UV-I 132 W/m 30,9 km/h (5 Bft)
05.02.2014 13:12 7,2 C 6,7 C 82 % 995,0 hPa 0,0 l/m 0 min 0 min 0,0 UV-I 86 W/m 36,0 km/h (5 Bft)
05.02.2014 13:14 7,2 C 6,7 C 82 % 995,0 hPa 0,0 l/m 0 min 0 min 0,0 UV-I 76 W/m 30,9 km/h (5 Bft)
05.02.2014 13:16 7,1 C 6,7 C 82 % 995,0 hPa 0,0 l/m 0 min 0 min 0,0 UV-I 74 W/m 25,7 km/h (4 Bft)
05.02.2014 13:18 7,1 C 6,1 C 82 % 994,9 hPa 0,0 l/m 0 min 0 min 0,0 UV-I 91 W/m 28,3 km/h (4 Bft)
05.02.2014 13:20 7,1 C 6,7 C 82 % 995,0 hPa 0,0 l/m 0 min 0 min 0,0 UV-I 97 W/m 28,3 km/h (4 Bft)
05.02.2014 13:22 7,1 C 6,7 C 82 % 994,8 hPa 0,0 l/m 0 min 0 min 0,0 UV-I 93 W/m 20,6 km/h (4 Bft)
05.02.2014 13:24 7,1 C 6,7 C 83 % 994,7 hPa 0,0 l/m 0 min 0 min 0,0 UV-I 86 W/m 23,2 km/h (4 Bft)
05.02.2014 13:26 7,1 C 6,7 C 83 % 994,8 hPa 0,0 l/m 0 min 0 min 0,0 UV-I 76 W/m 15,4 km/h (3 Bft)
05.02.2014 13:28 7,1 C 6,7 C 83 % 994,8 hPa 0,0 l/m 0 min 0 min 0,0 UV-I 40 W/m 23,2 km/h (4 Bft)
05.02.2014 13:30 7,1 C 6,1 C 83 % 994,7 hPa 0,0 l/m 0 min 0 min 0,0 UV-I 44 W/m 20,6 km/h (4 Bft)
05.02.2014 13:32 7,1 C 6,1 C 83 % 994,6 hPa 0,0 l/m 0 min 0 min 0,0 UV-I 60 W/m 28,3 km/h (4 Bft)
05.02.2014 13:34 7,1 C 6,1 C 83 % 994,6 hPa 0,0 l/m 0 min 0 min 0,0 UV-I 79 W/m 20,6 km/h (4 Bft)
05.02.2014 13:36 7,1 C 6,1 C 83 % 994,6 hPa 0,0 l/m 0 min 0 min 0,0 UV-I 107 W/m 20,6 km/h (4 Bft)
05.02.2014 13:38 7,1 C 6,7 C 83 % 994,6 hPa 0,0 l/m 0 min 0 min 0,0 UV-I 116 W/m 20,6 km/h (4 Bft)
05.02.2014 13:40 7,1 C 6,7 C 83 % 994,5 hPa 0,0 l/m 0 min 0 min 0,0 UV-I 93 W/m 23,2 km/h (4 Bft)
05.02.2014 13:42 7,1 C 6,7 C 83 % 994,5 hPa 0,0 l/m 0 min 0 min 0,0 UV-I 67 W/m 25,7 km/h (4 Bft)
05.02.2014 13:44 7,1 C 6,1 C 83 % 994,5 hPa 0,0 l/m 0 min 0 min 0,0 UV-I 58 W/m 23,2 km/h (4 Bft)
05.02.2014 13:46 7,1 C 6,1 C 83 % 994,5 hPa 0,0 l/m 0 min 0 min 0,0 UV-I 51 W/m 30,9 km/h (5 Bft)
05.02.2014 13:48 7,1 C 6,1 C 83 % 994,5 hPa 0,0 l/m 0 min 0 min 0,0 UV-I 56 W/m 23,2 km/h (4 Bft)
05.02.2014 13:50 7,1 C 6,1 C 83 % 994,5 hPa 0,0 l/m 0 min 0 min 0,0 UV-I 69 W/m 23,2 km/h (4 Bft)
05.02.2014 13:52 7,1 C 6,1 C 83 % 994,5 hPa 0,0 l/m 0 min 0 min 0,0 UV-I 72 W/m 28,3 km/h (4 Bft)
05.02.2014 13:54 7,1 C 6,1 C 83 % 994,4 hPa 0,0 l/m 0 min 0 min 0,0 UV-I 72 W/m 18,0 km/h (3 Bft)
05.02.2014 13:56 7,1 C 6,7 C 83 % 994,4 hPa 0,0 l/m 0 min 0 min 0,0 UV-I 81 W/m 15,4 km/h (3 Bft)
05.02.2014 13:58 7,1 C 6,7 C 83 % 994,4 hPa 0,0 l/m 0 min 0 min 0,0 UV-I 97 W/m 15,4 km/h (3 Bft)
05.02.2014 14:00 7,2 C 6,7 C 83 % 994,3 hPa 0,0 l/m 0 min 0 min 0,0 UV-I 97 W/m 18,0 km/h (3 Bft)
05.02.2014 14:02 7,2 C 6,7 C 83 % 994,3 hPa 0,0 l/m 0 min 0 min 0,0 UV-I 91 W/m 23,2 km/h (4 Bft)
05.02.2014 14:04 7,2 C 6,7 C 83 % 994,2 hPa 0,0 l/m 0 min 0 min 0,0 UV-I 86 W/m 23,2 km/h (4 Bft)
05.02.2014 14:06 7,2 C 6,7 C 83 % 994,2 hPa 0,0 l/m 0 min 0 min 0,0 UV-I 83 W/m 18,0 km/h (3 Bft)
05.02.2014 14:08 7,2 C 6,7 C 83 % 994,1 hPa 0,0 l/m 0 min 0 min 0,0 UV-I 83 W/m 25,7 km/h (4 Bft)
05.02.2014 14:10 7,2 C 6,7 C 83 % 994,1 hPa 0,0 l/m 0 min 0 min 0,0 UV-I 81 W/m 23,2 km/h (4 Bft)
05.02.2014 14:12 7,3 C 6,7 C 83 % 994,0 hPa 0,0 l/m 0 min 0 min 0,0 UV-I 81 W/m 23,2 km/h (4 Bft)
05.02.2014 14:14 7,3 C 6,7 C 83 % 994,0 hPa 0,0 l/m 0 min 0 min 0,0 UV-I 79 W/m 15,4 km/h (3 Bft)
05.02.2014 14:16 7,3 C 6,7 C 83 % 994,0 hPa 0,0 l/m 0 min 0 min 0,0 UV-I 77 W/m 15,4 km/h (3 Bft)
05.02.2014 14:18 7,3 C 6,7 C 83 % 994,0 hPa 0,0 l/m 0 min 0 min 0,0 UV-I 74 W/m 20,6 km/h (4 Bft)
05.02.2014 14:20 7,3 C 6,7 C 83 % 994,1 hPa 0,0 l/m 0 min 0 min 0,0 UV-I 70 W/m 18,0 km/h (3 Bft)
05.02.2014 14:22 7,3 C 6,7 C 83 % 994,1 hPa 0,0 l/m 0 min 0 min 0,0 UV-I 67 W/m 10,3 km/h (2 Bft)
05.02.2014 14:24 7,3 C 6,1 C 83 % 994,1 hPa 0,0 l/m 0 min 0 min 0,0 UV-I 65 W/m 18,0 km/h (3 Bft)
05.02.2014 14:26 7,3 C 6,1 C 83 % 994,0 hPa 0,0 l/m 0 min 0 min 0,0 UV-I 62 W/m 18,0 km/h (3 Bft)
05.02.2014 14:28 7,3 C 6,1 C 83 % 994,1 hPa 0,0 l/m 0 min 0 min 0,0 UV-I 54 W/m 12,9 km/h (3 Bft)
05.02.2014 14:30 7,3 C 6,1 C 83 % 994,1 hPa 0,0 l/m 0 min 0 min 0,0 UV-I 53 W/m 15,4 km/h (3 Bft)
05.02.2014 14:32 7,3 C 6,1 C 83 % 994,1 hPa 0,0 l/m 0 min 0 min 0,0 UV-I 54 W/m 10,3 km/h (2 Bft)
05.02.2014 14:34 7,3 C 6,1 C 83 % 994,1 hPa 0,0 l/m 0 min 0 min 0,0 UV-I 54 W/m 15,4 km/h (3 Bft)
05.02.2014 14:36 7,2 C 6,1 C 83 % 994,1 hPa 0,0 l/m 0 min 0 min 0,0 UV-I 51 W/m 15,4 km/h (3 Bft)
05.02.2014 14:38 7,2 C 6,1 C 83 % 994,2 hPa 0,0 l/m 0 min 0 min 0,0 UV-I 46 W/m 18,0 km/h (3 Bft)
05.02.2014 14:40 7,2 C 6,1 C 83 % 994,2 hPa 0,0 l/m 0 min 0 min 0,0 UV-I 44 W/m 18,0 km/h (3 Bft)
05.02.2014 14:42 7,1 C 6,1 C 83 % 994,2 hPa 0,0 l/m 0 min 0 min 0,0 UV-I 42 W/m 20,6 km/h (4 Bft)
05.02.2014 14:44 7,1 C 6,1 C 83 % 994,2 hPa 0,0 l/m 0 min 0 min 0,0 UV-I 44 W/m 23,2 km/h (4 Bft)
05.02.2014 14:46 7,1 C 6,1 C 83 % 994,2 hPa 0,0 l/m 0 min 0 min 0,0 UV-I 44 W/m 15,4 km/h (3 Bft)
05.02.2014 14:48 7,1 C 6,1 C 83 % 994,2 hPa 0,0 l/m 0 min 0 min 0,0 UV-I 44 W/m 18,0 km/h (3 Bft)
05.02.2014 14:50 7,1 C 6,1 C 83 % 994,1 hPa 0,0 l/m 0 min 0 min 0,0 UV-I 37 W/m 28,3 km/h (4 Bft)
05.02.2014 14:52 7,1 C 6,1 C 84 % 994,1 hPa 0,0 l/m 0 min 0 min 0,0 UV-I 35 W/m 15,4 km/h (3 Bft)
05.02.2014 14:54 7,1 C 5,6 C 84 % 994,2 hPa 0,0 l/m 0 min 2 min 0,0 UV-I 33 W/m 25,7 km/h (4 Bft)
05.02.2014 14:56 7,1 C 5,6 C 84 % 994,1 hPa 0,0 l/m 0 min 2 min 0,0 UV-I 32 W/m 33,5 km/h (5 Bft)
05.02.2014 14:58 7,2 C 5,6 C 84 % 994,1 hPa 0,0 l/m 0 min 2 min 0,0 UV-I 32 W/m 23,2 km/h (4 Bft)
05.02.2014 15:00 7,2 C 5,6 C 85 % 994,2 hPa 0,0 l/m 0 min 2 min 0,0 UV-I 32 W/m 12,9 km/h (3 Bft)
05.02.2014 15:02 7,2 C 5,6 C 85 % 994,2 hPa 0,0 l/m 0 min 2 min 0,0 UV-I 37 W/m 18,0 km/h (3 Bft)
05.02.2014 15:04 7,2 C 5,6 C 85 % 994,1 hPa 0,0 l/m 0 min 2 min 0,0 UV-I 40 W/m 23,2 km/h (4 Bft)
05.02.2014 15:06 7,2 C 5,6 C 85 % 994,1 hPa 0,0 l/m 0 min 2 min 0,0 UV-I 44 W/m 18,0 km/h (3 Bft)
05.02.2014 15:08 7,2 C 5,6 C 86 % 994,1 hPa 0,0 l/m 0 min 2 min 0,0 UV-I 46 W/m 25,7 km/h (4 Bft)
05.02.2014 15:10 7,2 C 5,6 C 86 % 994,1 hPa 0,0 l/m 0 min 2 min 0,0 UV-I 46 W/m 23,2 km/h (4 Bft)
05.02.2014 15:12 7,2 C 5,6 C 86 % 994,1 hPa 0,0 l/m 0 min 2 min 0,0 UV-I 47 W/m 15,4 km/h (3 Bft)
05.02.2014 15:14 7,2 C 5,6 C 86 % 994,2 hPa 0,0 l/m 0 min 2 min 0,0 UV-I 51 W/m 15,4 km/h (3 Bft)
05.02.2014 15:16 7,2 C 5,6 C 87 % 994,2 hPa 0,0 l/m 0 min 2 min 0,0 UV-I 53 W/m 25,7 km/h (4 Bft)
05.02.2014 15:18 7,3 C 5,6 C 87 % 994,1 hPa 0,0 l/m 0 min 0 min 0,0 UV-I 53 W/m 18,0 km/h (3 Bft)
05.02.2014 15:20 7,3 C 5,6 C 87 % 994,1 hPa 0,0 l/m 0 min 0 min 0,0 UV-I 54 W/m 18,0 km/h (3 Bft)
05.02.2014 15:22 7,3 C 5,6 C 87 % 994,1 hPa 0,0 l/m 0 min 0 min 0,0 UV-I 54 W/m 20,6 km/h (4 Bft)
05.02.2014 15:24 7,3 C 5,6 C 87 % 994,1 hPa 0,0 l/m 0 min 0 min 0,0 UV-I 56 W/m 20,6 km/h (4 Bft)
05.02.2014 15:26 7,3 C 5,6 C 87 % 993,9 hPa 0,0 l/m 0 min 2 min 0,0 UV-I 67 W/m 23,2 km/h (4 Bft)
05.02.2014 15:28 7,3 C 5,6 C 87 % 993,9 hPa 0,0 l/m 0 min 0 min 0,0 UV-I 69 W/m 25,7 km/h (4 Bft)
05.02.2014 15:30 7,4 C 5,6 C 86 % 993,9 hPa 0,2 l/m 0 min 0 min 0,0 UV-I 65 W/m 23,2 km/h (4 Bft)
05.02.2014 15:32 7,4 C 5,6 C 86 % 994,0 hPa 0,0 l/m 0 min 0 min 0,0 UV-I 56 W/m 28,3 km/h (4 Bft)
05.02.2014 15:34 7,4 C 5,6 C 86 % 993,9 hPa 0,0 l/m 0 min 0 min 0,0 UV-I 54 W/m 28,3 km/h (4 Bft)
05.02.2014 15:36 7,5 C 5,6 C 86 % 994,0 hPa 0,0 l/m 0 min 0 min 0,0 UV-I 54 W/m 28,3 km/h (4 Bft)
05.02.2014 15:38 7,5 C 6,1 C 86 % 994,0 hPa 0,0 l/m 0 min 0 min 0,0 UV-I 63 W/m 23,2 km/h (4 Bft)
05.02.2014 15:40 7,6 C 6,1 C 85 % 994,0 hPa 0,0 l/m 0 min 0 min 0,0 UV-I 76 W/m 23,2 km/h (4 Bft)
05.02.2014 15:42 7,7 C 6,1 C 85 % 994,0 hPa 0,0 l/m 0 min 0 min 0,0 UV-I 84 W/m 18,0 km/h (3 Bft)
05.02.2014 15:44 7,7 C 6,1 C 85 % 994,1 hPa 0,0 l/m 0 min 0 min 0,0 UV-I 74 W/m 18,0 km/h (3 Bft)
05.02.2014 15:46 7,7 C 6,1 C 84 % 994,1 hPa 0,0 l/m 0 min 0 min 0,0 UV-I 63 W/m 25,7 km/h (4 Bft)
05.02.2014 15:48 7,8 C 6,1 C 84 % 994,1 hPa 0,0 l/m 0 min 0 min 0,0 UV-I 58 W/m 30,9 km/h (5 Bft)
05.02.2014 15:50 7,8 C 6,7 C 84 % 994,1 hPa 0,0 l/m 0 min 0 min 0,0 UV-I 49 W/m 18,0 km/h (3 Bft)
05.02.2014 15:52 7,9 C 6,7 C 83 % 994,0 hPa 0,0 l/m 0 min 0 min 0,0 UV-I 44 W/m 30,9 km/h (5 Bft)
05.02.2014 15:54 7,9 C 6,7 C 82 % 993,9 hPa 0,0 l/m 0 min 0 min 0,0 UV-I 44 W/m 28,3 km/h (4 Bft)
05.02.2014 15:56 7,9 C 6,7 C 82 % 993,9 hPa 0,0 l/m 0 min 0 min 0,0 UV-I 39 W/m 20,6 km/h (4 Bft)
05.02.2014 15:58 7,9 C 6,7 C 82 % 993,9 hPa 0,0 l/m 0 min 0 min 0,0 UV-I 39 W/m 33,5 km/h (5 Bft)
05.02.2014 16:00 7,9 C 6,7 C 81 % 993,9 hPa 0,0 l/m 0 min 0 min 0,0 UV-I 44 W/m 30,9 km/h (5 Bft)
05.02.2014 16:02 7,9 C 6,7 C 81 % 993,9 hPa 0,0 l/m 0 min 0 min 0,0 UV-I 46 W/m 30,9 km/h (5 Bft)
05.02.2014 16:04 8,0 C 6,7 C 81 % 993,8 hPa 0,0 l/m 0 min 0 min 0,0 UV-I 42 W/m 30,9 km/h (5 Bft)
05.02.2014 16:06 8,0 C 6,7 C 81 % 993,8 hPa 0,0 l/m 0 min 0 min 0,0 UV-I 54 W/m 23,2 km/h (4 Bft)
05.02.2014 16:08 8,0 C 6,7 C 81 % 993,9 hPa 0,0 l/m 0 min 0 min 0,0 UV-I 58 W/m 20,6 km/h (4 Bft)
05.02.2014 16:10 8,0 C 6,7 C 80 % 994,0 hPa 0,0 l/m 0 min 0 min 0,0 UV-I 62 W/m 28,3 km/h (4 Bft)
05.02.2014 16:12 8,0 C 6,7 C 80 % 993,9 hPa 0,0 l/m 0 min 0 min 0,0 UV-I 58 W/m 33,5 km/h (5 Bft)
05.02.2014 16:14 8,0 C 6,7 C 80 % 994,0 hPa 0,0 l/m 0 min 0 min 0,0 UV-I 65 W/m 43,8 km/h (6 Bft)
05.02.2014 16:16 8,0 C 6,7 C 80 % 994,0 hPa 0,0 l/m 0 min 0 min 0,0 UV-I 69 W/m 33,5 km/h (5 Bft)
05.02.2014 16:18 8,0 C 6,7 C 80 % 994,0 hPa 0,0 l/m 0 min 0 min 0,0 UV-I 54 W/m 41,2 km/h (6 Bft)
05.02.2014 16:20 8,0 C 6,7 C 79 % 994,0 hPa 0,0 l/m 0 min 0 min 0,0 UV-I 39 W/m 30,9 km/h (5 Bft)
05.02.2014 16:22 8,0 C 6,7 C 79 % 994,1 hPa 0,0 l/m 0 min 0 min 0,0 UV-I 26 W/m 41,2 km/h (6 Bft)
05.02.2014 16:24 8,0 C 6,7 C 80 % 994,1 hPa 0,0 l/m 0 min 0 min 0,0 UV-I 21 W/m 18,0 km/h (3 Bft)
05.02.2014 16:26 7,9 C 6,7 C 80 % 994,1 hPa 0,0 l/m 0 min 0 min 0,0 UV-I 18 W/m 25,7 km/h (4 Bft)
05.02.2014 16:28 7,9 C 6,7 C 80 % 994,1 hPa 0,0 l/m 0 min 0 min 0,0 UV-I 19 W/m 33,5 km/h (5 Bft)
05.02.2014 16:30 7,9 C 6,7 C 79 % 994,2 hPa 0,0 l/m 0 min 0 min 0,0 UV-I 18 W/m 30,9 km/h (5 Bft)
05.02.2014 16:32 7,8 C 6,1 C 79 % 994,1 hPa 0,0 l/m 0 min 0 min 0,0 UV-I 19 W/m 18,0 km/h (3 Bft)
05.02.2014 16:34 7,8 C 6,1 C 80 % 994,2 hPa 0,0 l/m 0 min 0 min 0,0 UV-I 21 W/m 23,2 km/h (4 Bft)
05.02.2014 16:36 7,8 C 6,1 C 80 % 994,2 hPa 0,0 l/m 0 min 0 min 0,0 UV-I 23 W/m 20,6 km/h (4 Bft)
05.02.2014 16:38 7,8 C 6,1 C 80 % 994,3 hPa 0,0 l/m 0 min 0 min 0,0 UV-I 25 W/m 33,5 km/h (5 Bft)
05.02.2014 16:40 7,8 C 6,1 C 79 % 994,4 hPa 0,0 l/m 0 min 0 min 0,0 UV-I 30 W/m 30,9 km/h (5 Bft)
05.02.2014 16:42 7,7 C 6,1 C 80 % 994,4 hPa 0,0 l/m 0 min 0 min 0,0 UV-I 49 W/m 25,7 km/h (4 Bft)
05.02.2014 16:44 7,7 C 6,7 C 80 % 994,4 hPa 0,0 l/m 0 min 0 min 0,0 UV-I 54 W/m 28,3 km/h (4 Bft)
05.02.2014 16:46 7,7 C 6,7 C 80 % 994,5 hPa 0,0 l/m 0 min 0 min 0,0 UV-I 47 W/m 33,5 km/h (5 Bft)
05.02.2014 16:48 7,7 C 6,7 C 80 % 994,5 hPa 0,0 l/m 0 min 0 min 0,0 UV-I 32 W/m 36,0 km/h (5 Bft)
05.02.2014 16:50 7,8 C 6,7 C 80 % 994,6 hPa 0,0 l/m 0 min 0 min 0,0 UV-I 21 W/m 33,5 km/h (5 Bft)
05.02.2014 16:52 7,7 C 6,1 C 80 % 994,6 hPa 0,0 l/m 0 min 0 min 0,0 UV-I 14 W/m 12,9 km/h (3 Bft)
05.02.2014 16:54 7,7 C 6,1 C 80 % 994,6 hPa 0,0 l/m 0 min 0 min 0,0 UV-I 11 W/m 23,2 km/h (4 Bft)
05.02.2014 16:56 7,7 C 6,1 C 80 % 994,6 hPa 0,0 l/m 0 min 0 min 0,0 UV-I 12 W/m 12,9 km/h (3 Bft)
05.02.2014 16:58 7,7 C 6,1 C 80 % 994,6 hPa 0,0 l/m 0 min 0 min 0,0 UV-I 11 W/m 15,4 km/h (3 Bft)
05.02.2014 17:00 7,6 C 6,1 C 80 % 994,6 hPa 0,0 l/m 0 min 0 min 0,0 UV-I 9 W/m 18,0 km/h (3 Bft)
05.02.2014 17:02 7,6 C 6,1 C 80 % 994,6 hPa 0,0 l/m 0 min 0 min 0,0 UV-I 7 W/m 23,2 km/h (4 Bft)
05.02.2014 17:04 7,6 C 6,1 C 80 % 994,7 hPa 0,0 l/m 0 min 0 min 0,0 UV-I 7 W/m 18,0 km/h (3 Bft)
05.02.2014 17:06 7,6 C 6,1 C 80 % 994,7 hPa 0,0 l/m 0 min 0 min 0,0 UV-I 9 W/m 33,5 km/h (5 Bft)
05.02.2014 17:08 7,6 C 6,1 C 80 % 994,7 hPa 0,0 l/m 0 min 0 min 0,0 UV-I 11 W/m 25,7 km/h (4 Bft)
05.02.2014 17:10 7,7 C 6,1 C 80 % 994,7 hPa 0,0 l/m 0 min 0 min 0,0 UV-I 7 W/m 20,6 km/h (4 Bft)
05.02.2014 17:12 7,7 C 6,1 C 80 % 994,8 hPa 0,0 l/m 0 min 0 min 0,0 UV-I 7 W/m 18,0 km/h (3 Bft)
05.02.2014 17:14 7,7 C 6,1 C 80 % 994,6 hPa 0,0 l/m 0 min 0 min 0,0 UV-I 7 W/m 28,3 km/h (4 Bft)
05.02.2014 17:16 7,7 C 6,1 C 80 % 994,5 hPa 0,0 l/m 0 min 0 min 0,0 UV-I 7 W/m 23,2 km/h (4 Bft)
05.02.2014 17:18 7,7 C 6,1 C 80 % 994,6 hPa 0,0 l/m 0 min 0 min 0,0 UV-I 7 W/m 18,0 km/h (3 Bft)
05.02.2014 17:20 7,6 C 6,1 C 80 % 994,8 hPa 0,0 l/m 0 min 0 min 0,0 UV-I 7 W/m 20,6 km/h (4 Bft)
05.02.2014 17:22 7,6 C 5,6 C 80 % 994,8 hPa 0,0 l/m 0 min 0 min 0,0 UV-I 5 W/m 15,4 km/h (3 Bft)
05.02.2014 17:24 7,5 C 5,6 C 80 % 994,9 hPa 0,0 l/m 0 min 0 min 0,0 UV-I 5 W/m 15,4 km/h (3 Bft)
05.02.2014 17:26 7,4 C 5,6 C 80 % 995,0 hPa 0,0 l/m 0 min 0 min 0,0 UV-I 5 W/m 12,9 km/h (3 Bft)
05.02.2014 17:28 7,3 C 5,6 C 80 % 995,1 hPa 0,0 l/m 0 min 0 min 0,0 UV-I 5 W/m 15,4 km/h (3 Bft)
05.02.2014 17:30 7,3 C 5,0 C 80 % 995,2 hPa 0,0 l/m 0 min 0 min 0,0 UV-I 0 W/m 18,0 km/h (3 Bft)
05.02.2014 17:32 7,2 C 5,0 C 81 % 995,2 hPa 0,0 l/m 0 min 0 min 0,0 UV-I 0 W/m 12,9 km/h (3 Bft)
05.02.2014 17:34 7,2 C 5,0 C 81 % 995,2 hPa 0,0 l/m 0 min 0 min 0,0 UV-I 0 W/m 18,0 km/h (3 Bft)
05.02.2014 17:36 7,1 C 5,0 C 81 % 995,2 hPa 0,0 l/m 0 min 0 min 0,0 UV-I 0 W/m 15,4 km/h (3 Bft)
05.02.2014 17:38 7,1 C 5,0 C 81 % 995,2 hPa 0,0 l/m 0 min 0 min 0,0 UV-I 0 W/m 20,6 km/h (4 Bft)
05.02.2014 17:40 7,1 C 5,6 C 81 % 995,2 hPa 0,0 l/m 0 min 0 min 0,0 UV-I 0 W/m 18,0 km/h (3 Bft)
05.02.2014 17:42 7,1 C 5,6 C 81 % 995,2 hPa 0,0 l/m 0 min 0 min 0,0 UV-I 0 W/m 12,9 km/h (3 Bft)
05.02.2014 17:44 7,1 C 5,6 C 81 % 995,2 hPa 0,0 l/m 0 min 0 min 0,0 UV-I 0 W/m 23,2 km/h (4 Bft)
05.02.2014 17:46 7,1 C 5,6 C 81 % 995,2 hPa 0,0 l/m 0 min 0 min 0,0 UV-I 0 W/m 23,2 km/h (4 Bft)
05.02.2014 17:48 7,1 C 5,0 C 81 % 995,1 hPa 0,0 l/m 0 min 0 min 0,0 UV-I 0 W/m 25,7 km/h (4 Bft)
05.02.2014 17:50 7,1 C 5,0 C 82 % 995,1 hPa 0,0 l/m 0 min 0 min 0,0 UV-I 0 W/m 15,4 km/h (3 Bft)
05.02.2014 17:52 6,9 C 5,0 C 82 % 995,2 hPa 0,0 l/m 0 min 0 min 0,0 UV-I 0 W/m 12,9 km/h (3 Bft)
05.02.2014 17:54 6,9 C 5,0 C 82 % 995,2 hPa 0,0 l/m 0 min 0 min 0,0 UV-I 0 W/m 12,9 km/h (3 Bft)
05.02.2014 17:56 6,9 C 5,0 C 82 % 995,2 hPa 0,0 l/m 0 min 0 min 0,0 UV-I 0 W/m 18,0 km/h (3 Bft)
05.02.2014 17:58 6,8 C 5,0 C 82 % 995,2 hPa 0,0 l/m 0 min 0 min 0,0 UV-I 0 W/m 20,6 km/h (4 Bft)
05.02.2014 18:00 6,8 C 4,4 C 82 % 995,3 hPa 0,0 l/m 0 min 0 min 0,0 UV-I 0 W/m 7,7 km/h (2 Bft)
05.02.2014 18:02 6,7 C 4,4 C 83 % 995,3 hPa 0,0 l/m 0 min 0 min 0,0 UV-I 0 W/m 7,7 km/h (2 Bft)
05.02.2014 18:04 6,6 C 4,4 C 83 % 995,4 hPa 0,0 l/m 0 min 0 min 0,0 UV-I 0 W/m 18,0 km/h (3 Bft)
05.02.2014 18:06 6,6 C 4,4 C 83 % 995,4 hPa 0,0 l/m 0 min 0 min 0,0 UV-I 0 W/m 25,7 km/h (4 Bft)
05.02.2014 18:08 6,6 C 4,4 C 83 % 995,4 hPa 0,0 l/m 0 min 0 min 0,0 UV-I 0 W/m 18,0 km/h (3 Bft)
05.02.2014 18:10 6,5 C 4,4 C 83 % 995,4 hPa 0,0 l/m 0 min 0 min 0,0 UV-I 0 W/m 15,4 km/h (3 Bft)
05.02.2014 18:12 6,5 C 4,4 C 83 % 995,5 hPa 0,0 l/m 0 min 0 min 0,0 UV-I 0 W/m 12,9 km/h (3 Bft)
05.02.2014 18:14 6,4 C 4,4 C 83 % 995,5 hPa 0,0 l/m 0 min 0 min 0,0 UV-I 0 W/m 18,0 km/h (3 Bft)
05.02.2014 18:16 6,4 C 4,4 C 84 % 995,5 hPa 0,0 l/m 0 min 0 min 0,0 UV-I 0 W/m 20,6 km/h (4 Bft)
05.02.2014 18:18 6,4 C 4,4 C 83 % 995,5 hPa 0,0 l/m 0 min 0 min 0,0 UV-I 0 W/m 18,0 km/h (3 Bft)
05.02.2014 18:20 6,4 C 4,4 C 84 % 995,4 hPa 0,0 l/m 0 min 0 min 0,0 UV-I 0 W/m 15,4 km/h (3 Bft)
05.02.2014 18:22 6,3 C 4,4 C 84 % 995,4 hPa 0,0 l/m 0 min 0 min 0,0 UV-I 0 W/m 28,3 km/h (4 Bft)
05.02.2014 18:24 6,3 C 4,4 C 84 % 995,4 hPa 0,0 l/m 0 min 0 min 0,0 UV-I 0 W/m 15,4 km/h (3 Bft)
05.02.2014 18:26 6,3 C 3,9 C 84 % 995,4 hPa 0,0 l/m 0 min 0 min 0,0 UV-I 0 W/m 12,9 km/h (3 Bft)
05.02.2014 18:28 6,2 C 3,9 C 84 % 995,4 hPa 0,0 l/m 0 min 0 min 0,0 UV-I 0 W/m 12,9 km/h (3 Bft)
05.02.2014 18:30 6,2 C 3,9 C 84 % 995,4 hPa 0,0 l/m 0 min 0 min 0,0 UV-I 0 W/m 25,7 km/h (4 Bft)
05.02.2014 18:32 6,2 C 4,4 C 84 % 995,4 hPa 0,0 l/m 0 min 0 min 0,0 UV-I 0 W/m 18,0 km/h (3 Bft)
05.02.2014 18:34 6,2 C 4,4 C 84 % 995,4 hPa 0,0 l/m 0 min 0 min 0,0 UV-I 0 W/m 12,9 km/h (3 Bft)
05.02.2014 18:36 6,2 C 4,4 C 85 % 995,4 hPa 0,0 l/m 0 min 0 min 0,0 UV-I 0 W/m 18,0 km/h (3 Bft)
05.02.2014 18:38 6,1 C 3,9 C 85 % 995,5 hPa 0,0 l/m 0 min 0 min 0,0 UV-I 0 W/m 15,4 km/h (3 Bft)
05.02.2014 18:40 6,1 C 3,9 C 85 % 995,5 hPa 0,0 l/m 0 min 0 min 0,0 UV-I 0 W/m 15,4 km/h (3 Bft)
05.02.2014 18:42 6,1 C 3,9 C 85 % 995,5 hPa 0,0 l/m 0 min 0 min 0,0 UV-I 0 W/m 15,4 km/h (3 Bft)
05.02.2014 18:44 6,1 C 3,9 C 85 % 995,6 hPa 0,0 l/m 0 min 0 min 0,0 UV-I 0 W/m 20,6 km/h (4 Bft)
05.02.2014 18:46 6,1 C 3,9 C 85 % 995,7 hPa 0,0 l/m 0 min 0 min 0,0 UV-I 0 W/m 20,6 km/h (4 Bft)
05.02.2014 18:48 6,1 C 3,9 C 85 % 995,7 hPa 0,0 l/m 0 min 0 min 0,0 UV-I 0 W/m 20,6 km/h (4 Bft)
05.02.2014 18:50 6,1 C 3,9 C 85 % 995,6 hPa 0,0 l/m 0 min 0 min 0,0 UV-I 0 W/m 18,0 km/h (3 Bft)
05.02.2014 18:52 6,1 C 3,9 C 85 % 995,7 hPa 0,0 l/m 0 min 0 min 0,0 UV-I 0 W/m 15,4 km/h (3 Bft)
05.02.2014 18:54 6,1 C 4,4 C 85 % 995,7 hPa 0,0 l/m 0 min 0 min 0,0 UV-I 0 W/m 20,6 km/h (4 Bft)
05.02.2014 18:56 6,1 C 4,4 C 85 % 995,6 hPa 0,0 l/m 0 min 0 min 0,0 UV-I 0 W/m 25,7 km/h (4 Bft)
05.02.2014 18:58 6,1 C 4,4 C 85 % 995,7 hPa 0,0 l/m 0 min 0 min 0,0 UV-I 0 W/m 23,2 km/h (4 Bft)
05.02.2014 19:00 6,1 C 4,4 C 85 % 995,6 hPa 0,0 l/m 0 min 0 min 0,0 UV-I 0 W/m 15,4 km/h (3 Bft)
05.02.2014 19:02 6,1 C 4,4 C 85 % 995,7 hPa 0,0 l/m 0 min 0 min 0,0 UV-I 0 W/m 18,0 km/h (3 Bft)
05.02.2014 19:04 6,1 C 3,9 C 85 % 995,6 hPa 0,0 l/m 0 min 0 min 0,0 UV-I 0 W/m 23,2 km/h (4 Bft)
05.02.2014 19:06 6,1 C 3,9 C 85 % 995,6 hPa 0,0 l/m 0 min 0 min 0,0 UV-I 0 W/m 12,9 km/h (3 Bft)
05.02.2014 19:08 6,1 C 3,9 C 85 % 995,5 hPa 0,0 l/m 0 min 0 min 0,0 UV-I 0 W/m 12,9 km/h (3 Bft)
05.02.2014 19:10 6,0 C 3,9 C 85 % 995,6 hPa 0,0 l/m 0 min 0 min 0,0 UV-I 0 W/m 18,0 km/h (3 Bft)
05.02.2014 19:12 6,0 C 3,9 C 85 % 995,5 hPa 0,0 l/m 0 min 0 min 0,0 UV-I 0 W/m 20,6 km/h (4 Bft)
05.02.2014 19:14 6,0 C 3,9 C 85 % 995,4 hPa 0,0 l/m 0 min 0 min 0,0 UV-I 0 W/m 15,4 km/h (3 Bft)
05.02.2014 19:16 6,0 C 3,9 C 85 % 995,5 hPa 0,0 l/m 0 min 0 min 0,0 UV-I 0 W/m 20,6 km/h (4 Bft)
05.02.2014 19:18 6,0 C 3,9 C 85 % 995,4 hPa 0,0 l/m 0 min 0 min 0,0 UV-I 0 W/m 18,0 km/h (3 Bft)
05.02.2014 19:20 6,1 C 3,9 C 85 % 995,4 hPa 0,0 l/m 0 min 0 min 0,0 UV-I 0 W/m 18,0 km/h (3 Bft)
05.02.2014 19:22 6,1 C 3,9 C 85 % 995,4 hPa 0,0 l/m 0 min 0 min 0,0 UV-I 0 W/m 20,6 km/h (4 Bft)
05.02.2014 19:24 6,1 C 3,9 C 85 % 995,4 hPa 0,0 l/m 0 min 0 min 0,0 UV-I 0 W/m 20,6 km/h (4 Bft)
05.02.2014 19:26 6,1 C 3,9 C 85 % 995,5 hPa 0,0 l/m 0 min 0 min 0,0 UV-I 0 W/m 15,4 km/h (3 Bft)
05.02.2014 19:28 6,1 C 3,9 C 85 % 995,5 hPa 0,0 l/m 0 min 0 min 0,0 UV-I 0 W/m 18,0 km/h (3 Bft)
05.02.2014 19:30 6,1 C 3,9 C 85 % 995,5 hPa 0,0 l/m 0 min 0 min 0,0 UV-I 0 W/m 12,9 km/h (3 Bft)
05.02.2014 19:32 6,1 C 3,9 C 84 % 995,6 hPa 0,0 l/m 0 min 0 min 0,0 UV-I 0 W/m 20,6 km/h (4 Bft)
05.02.2014 19:34 6,1 C 3,9 C 84 % 995,6 hPa 0,0 l/m 0 min 0 min 0,0 UV-I 0 W/m 18,0 km/h (3 Bft)
05.02.2014 19:36 6,1 C 3,9 C 85 % 995,6 hPa 0,0 l/m 0 min 0 min 0,0 UV-I 0 W/m 15,4 km/h (3 Bft)
05.02.2014 19:38 6,1 C 3,9 C 84 % 995,6 hPa 0,0 l/m 0 min 0 min 0,0 UV-I 0 W/m 15,4 km/h (3 Bft)
05.02.2014 19:40 6,0 C 3,9 C 84 % 995,6 hPa 0,0 l/m 0 min 0 min 0,0 UV-I 0 W/m 18,0 km/h (3 Bft)
05.02.2014 19:42 6,0 C 3,9 C 85 % 995,7 hPa 0,0 l/m 0 min 0 min 0,0 UV-I 0 W/m 18,0 km/h (3 Bft)
05.02.2014 19:44 5,9 C 3,9 C 85 % 995,6 hPa 0,0 l/m 0 min 0 min 0,0 UV-I 0 W/m 25,7 km/h (4 Bft)
05.02.2014 19:46 5,9 C 3,9 C 85 % 995,6 hPa 0,0 l/m 0 min 0 min 0,0 UV-I 0 W/m 12,9 km/h (3 Bft)
05.02.2014 19:48 5,8 C 3,9 C 85 % 995,6 hPa 0,0 l/m 0 min 0 min 0,0 UV-I 0 W/m 18,0 km/h (3 Bft)
05.02.2014 19:50 5,7 C 3,9 C 85 % 995,7 hPa 0,0 l/m 0 min 0 min 0,0 UV-I 0 W/m 15,4 km/h (3 Bft)
05.02.2014 19:52 5,7 C 3,9 C 86 % 995,7 hPa 0,0 l/m 0 min 0 min 0,0 UV-I 0 W/m 28,3 km/h (4 Bft)
05.02.2014 19:54 5,7 C 3,9 C 86 % 995,7 hPa 0,0 l/m 0 min 0 min 0,0 UV-I 0 W/m 23,2 km/h (4 Bft)
05.02.2014 19:56 5,7 C 3,9 C 86 % 995,7 hPa 0,0 l/m 0 min 0 min 0,0 UV-I 0 W/m 18,0 km/h (3 Bft)
05.02.2014 19:58 5,7 C 3,9 C 86 % 995,7 hPa 0,0 l/m 0 min 0 min 0,0 UV-I 0 W/m 15,4 km/h (3 Bft)
05.02.2014 20:00 5,7 C 3,9 C 86 % 995,7 hPa 0,0 l/m 0 min 0 min 0,0 UV-I 0 W/m 15,4 km/h (3 Bft)
05.02.2014 20:02 5,7 C 3,9 C 86 % 995,7 hPa 0,0 l/m 0 min 0 min 0,0 UV-I 0 W/m 28,3 km/h (4 Bft)
05.02.2014 20:04 5,6 C 3,9 C 86 % 995,8 hPa 0,0 l/m 0 min 0 min 0,0 UV-I 0 W/m 18,0 km/h (3 Bft)
05.02.2014 20:06 5,6 C 3,9 C 86 % 995,8 hPa 0,0 l/m 0 min 0 min 0,0 UV-I 0 W/m 23,2 km/h (4 Bft)
05.02.2014 20:08 5,7 C 3,9 C 86 % 995,8 hPa 0,0 l/m 0 min 0 min 0,0 UV-I 0 W/m 12,9 km/h (3 Bft)
05.02.2014 20:10 5,7 C 3,9 C 86 % 995,9 hPa 0,0 l/m 0 min 0 min 0,0 UV-I 0 W/m 15,4 km/h (3 Bft)
05.02.2014 20:12 5,7 C 3,9 C 86 % 995,8 hPa 0,0 l/m 0 min 0 min 0,0 UV-I 0 W/m 20,6 km/h (4 Bft)
05.02.2014 20:14 5,7 C 3,9 C 86 % 995,9 hPa 0,0 l/m 0 min 0 min 0,0 UV-I 0 W/m 18,0 km/h (3 Bft)
05.02.2014 20:16 5,8 C 3,9 C 85 % 995,8 hPa 0,0 l/m 0 min 0 min 0,0 UV-I 0 W/m 18,0 km/h (3 Bft)
05.02.2014 20:18 5,8 C 3,9 C 85 % 995,9 hPa 0,0 l/m 0 min 0 min 0,0 UV-I 0 W/m 18,0 km/h (3 Bft)
05.02.2014 20:20 5,9 C 3,9 C 85 % 996,0 hPa 0,0 l/m 0 min 0 min 0,0 UV-I 0 W/m 25,7 km/h (4 Bft)
05.02.2014 20:22 6,0 C 4,4 C 85 % 995,8 hPa 0,0 l/m 0 min 0 min 0,0 UV-I 0 W/m 25,7 km/h (4 Bft)
05.02.2014 20:24 6,1 C 4,4 C 84 % 995,9 hPa 0,0 l/m 0 min 0 min 0,0 UV-I 0 W/m 12,9 km/h (3 Bft)
05.02.2014 20:26 6,1 C 4,4 C 84 % 995,9 hPa 0,0 l/m 0 min 0 min 0,0 UV-I 0 W/m 12,9 km/h (3 Bft)
05.02.2014 20:28 6,2 C 4,4 C 84 % 995,9 hPa 0,0 l/m 0 min 0 min 0,0 UV-I 0 W/m 18,0 km/h (3 Bft)
05.02.2014 20:30 6,2 C 4,4 C 84 % 995,9 hPa 0,0 l/m 0 min 0 min 0,0 UV-I 0 W/m 25,7 km/h (4 Bft)
05.02.2014 20:32 6,3 C 4,4 C 84 % 995,9 hPa 0,0 l/m 0 min 0 min 0,0 UV-I 0 W/m 23,2 km/h (4 Bft)
05.02.2014 20:34 6,3 C 4,4 C 84 % 995,9 hPa 0,0 l/m 0 min 0 min 0,0 UV-I 0 W/m 12,9 km/h (3 Bft)
05.02.2014 20:36 6,3 C 4,4 C 83 % 995,9 hPa 0,0 l/m 0 min 0 min 0,0 UV-I 0 W/m 12,9 km/h (3 Bft)
05.02.2014 20:38 6,3 C 4,4 C 83 % 995,8 hPa 0,0 l/m 0 min 0 min 0,0 UV-I 0 W/m 18,0 km/h (3 Bft)
05.02.2014 20:40 6,3 C 4,4 C 83 % 995,8 hPa 0,0 l/m 0 min 0 min 0,0 UV-I 0 W/m 18,0 km/h (3 Bft)
05.02.2014 20:42 6,3 C 4,4 C 83 % 995,8 hPa 0,0 l/m 0 min 0 min 0,0 UV-I 0 W/m 18,0 km/h (3 Bft)
05.02.2014 20:44 6,3 C 4,4 C 83 % 995,9 hPa 0,0 l/m 0 min 0 min 0,0 UV-I 0 W/m 12,9 km/h (3 Bft)
05.02.2014 20:46 6,3 C 4,4 C 83 % 995,9 hPa 0,0 l/m 0 min 0 min 0,0 UV-I 0 W/m 10,3 km/h (2 Bft)
05.02.2014 20:48 6,2 C 4,4 C 83 % 995,8 hPa 0,0 l/m 0 min 0 min 0,0 UV-I 0 W/m 12,9 km/h (3 Bft)
05.02.2014 20:50 6,2 C 3,9 C 83 % 995,8 hPa 0,0 l/m 0 min 0 min 0,0 UV-I 0 W/m 12,9 km/h (3 Bft)
05.02.2014 20:52 6,2 C 4,4 C 83 % 995,9 hPa 0,0 l/m 0 min 0 min 0,0 UV-I 0 W/m 15,4 km/h (3 Bft)
05.02.2014 20:54 6,2 C 3,9 C 83 % 995,9 hPa 0,0 l/m 0 min 0 min 0,0 UV-I 0 W/m 7,7 km/h (2 Bft)
05.02.2014 20:56 6,2 C 3,9 C 83 % 995,9 hPa 0,0 l/m 0 min 0 min 0,0 UV-I 0 W/m 10,3 km/h (2 Bft)
05.02.2014 20:58 6,2 C 4,4 C 83 % 995,9 hPa 0,0 l/m 0 min 0 min 0,0 UV-I 0 W/m 15,4 km/h (3 Bft)
05.02.2014 21:00 6,3 C 4,4 C 83 % 995,9 hPa 0,0 l/m 0 min 0 min 0,0 UV-I 0 W/m 7,7 km/h (2 Bft)
05.02.2014 21:02 6,2 C 4,4 C 83 % 995,9 hPa 0,0 l/m 0 min 0 min 0,0 UV-I 0 W/m 5,1 km/h (1 Bft)
05.02.2014 21:04 6,3 C 4,4 C 83 % 996,0 hPa 0,0 l/m 0 min 0 min 0,0 UV-I 0 W/m 15,4 km/h (3 Bft)
05.02.2014 21:06 6,3 C 4,4 C 83 % 995,9 hPa 0,0 l/m 0 min 0 min 0,0 UV-I 0 W/m 18,0 km/h (3 Bft)
05.02.2014 21:08 6,4 C 4,4 C 83 % 995,9 hPa 0,0 l/m 0 min 0 min 0,0 UV-I 0 W/m 10,3 km/h (2 Bft)
05.02.2014 21:10 6,5 C 4,4 C 82 % 996,1 hPa 0,0 l/m 0 min 0 min 0,0 UV-I 0 W/m 15,4 km/h (3 Bft)
05.02.2014 21:12 6,6 C 4,4 C 82 % 996,0 hPa 0,0 l/m 0 min 0 min 0,0 UV-I 0 W/m 28,3 km/h (4 Bft)
05.02.2014 21:14 6,8 C 5,0 C 82 % 996,1 hPa 0,0 l/m 0 min 0 min 0,0 UV-I 0 W/m 7,7 km/h (2 Bft)
05.02.2014 21:16 6,8 C 5,0 C 81 % 996,2 hPa 0,0 l/m 0 min 0 min 0,0 UV-I 0 W/m 25,7 km/h (4 Bft)
05.02.2014 21:18 6,9 C 5,0 C 81 % 996,1 hPa 0,0 l/m 0 min 0 min 0,0 UV-I 0 W/m 18,0 km/h (3 Bft)
05.02.2014 21:20 7,0 C 5,0 C 80 % 996,1 hPa 0,0 l/m 0 min 0 min 0,0 UV-I 0 W/m 15,4 km/h (3 Bft)
05.02.2014 21:22 7,1 C 5,0 C 80 % 996,1 hPa 0,0 l/m 0 min 0 min 0,0 UV-I 0 W/m 30,9 km/h (5 Bft)
05.02.2014 21:24 7,2 C 5,0 C 80 % 996,3 hPa 0,0 l/m 0 min 0 min 0,0 UV-I 0 W/m 33,5 km/h (5 Bft)
05.02.2014 21:26 7,3 C 5,6 C 79 % 996,2 hPa 0,0 l/m 0 min 0 min 0,0 UV-I 0 W/m 12,9 km/h (3 Bft)
05.02.2014 21:28 7,3 C 5,6 C 79 % 996,3 hPa 0,0 l/m 0 min 0 min 0,0 UV-I 0 W/m 15,4 km/h (3 Bft)
05.02.2014 21:30 7,4 C 5,6 C 79 % 996,2 hPa 0,0 l/m 0 min 0 min 0,0 UV-I 0 W/m 15,4 km/h (3 Bft)
05.02.2014 21:32 7,4 C 5,6 C 79 % 996,3 hPa 0,0 l/m 0 min 0 min 0,0 UV-I 0 W/m 15,4 km/h (3 Bft)
05.02.2014 21:34 7,4 C 5,6 C 79 % 996,4 hPa 0,0 l/m 0 min 0 min 0,0 UV-I 0 W/m 23,2 km/h (4 Bft)
05.02.2014 21:36 7,5 C 5,6 C 78 % 996,4 hPa 0,0 l/m 0 min 0 min 0,0 UV-I 0 W/m 10,3 km/h (2 Bft)
05.02.2014 21:38 7,5 C 5,6 C 78 % 996,3 hPa 0,0 l/m 0 min 0 min 0,0 UV-I 0 W/m 20,6 km/h (4 Bft)
05.02.2014 21:40 7,6 C 5,6 C 78 % 996,4 hPa 0,0 l/m 0 min 0 min 0,0 UV-I 0 W/m 18,0 km/h (3 Bft)
05.02.2014 21:42 7,6 C 5,6 C 78 % 996,4 hPa 0,0 l/m 0 min 0 min 0,0 UV-I 0 W/m 18,0 km/h (3 Bft)
05.02.2014 21:44 7,6 C 5,6 C 78 % 996,4 hPa 0,0 l/m 0 min 0 min 0,0 UV-I 0 W/m 25,7 km/h (4 Bft)
05.02.2014 21:46 7,7 C 5,6 C 78 % 996,4 hPa 0,0 l/m 0 min 0 min 0,0 UV-I 0 W/m 18,0 km/h (3 Bft)
05.02.2014 21:48 7,7 C 6,1 C 78 % 996,6 hPa 0,0 l/m 0 min 0 min 0,0 UV-I 0 W/m 28,3 km/h (4 Bft)
05.02.2014 21:50 7,8 C 6,1 C 77 % 996,5 hPa 0,0 l/m 0 min 0 min 0,0 UV-I 0 W/m 23,2 km/h (4 Bft)
05.02.2014 21:52 7,8 C 6,1 C 77 % 996,5 hPa 0,0 l/m 0 min 0 min 0,0 UV-I 0 W/m 18,0 km/h (3 Bft)
05.02.2014 21:54 7,8 C 6,1 C 77 % 996,5 hPa 0,0 l/m 0 min 0 min 0,0 UV-I 0 W/m 15,4 km/h (3 Bft)
05.02.2014 21:56 7,9 C 6,1 C 77 % 996,6 hPa 0,0 l/m 0 min 0 min 0,0 UV-I 0 W/m 18,0 km/h (3 Bft)
05.02.2014 21:58 7,9 C 6,1 C 77 % 996,7 hPa 0,0 l/m 0 min 0 min 0,0 UV-I 0 W/m 23,2 km/h (4 Bft)
05.02.2014 22:00 7,9 C 6,1 C 77 % 996,6 hPa 0,0 l/m 0 min 0 min 0,0 UV-I 0 W/m 18,0 km/h (3 Bft)
05.02.2014 22:02 7,9 C 6,1 C 77 % 996,7 hPa 0,0 l/m 0 min 0 min 0,0 UV-I 0 W/m 36,0 km/h (5 Bft)
05.02.2014 22:04 8,0 C 6,1 C 77 % 996,6 hPa 0,0 l/m 0 min 0 min 0,0 UV-I 0 W/m 15,4 km/h (3 Bft)
05.02.2014 22:06 8,1 C 6,1 C 77 % 996,6 hPa 0,0 l/m 0 min 0 min 0,0 UV-I 0 W/m 18,0 km/h (3 Bft)
05.02.2014 22:08 8,1 C 6,1 C 76 % 996,9 hPa 0,0 l/m 0 min 0 min 0,0 UV-I 0 W/m 33,5 km/h (5 Bft)
05.02.2014 22:10 8,1 C 6,7 C 76 % 996,6 hPa 0,0 l/m 0 min 0 min 0,0 UV-I 0 W/m 33,5 km/h (5 Bft)
05.02.2014 22:12 8,1 C 6,7 C 76 % 996,7 hPa 0,0 l/m 0 min 0 min 0,0 UV-I 0 W/m 28,3 km/h (4 Bft)
05.02.2014 22:14 8,1 C 6,7 C 76 % 996,7 hPa 0,0 l/m 0 min 0 min 0,0 UV-I 0 W/m 25,7 km/h (4 Bft)
05.02.2014 22:16 8,1 C 6,7 C 76 % 996,7 hPa 0,0 l/m 0 min 0 min 0,0 UV-I 0 W/m 23,2 km/h (4 Bft)
05.02.2014 22:18 8,1 C 6,7 C 76 % 996,7 hPa 0,0 l/m 0 min 0 min 0,0 UV-I 0 W/m 36,0 km/h (5 Bft)
05.02.2014 22:20 8,2 C 6,1 C 76 % 996,6 hPa 0,0 l/m 0 min 0 min 0,0 UV-I 0 W/m 20,6 km/h (4 Bft)
05.02.2014 22:22 8,1 C 6,1 C 76 % 996,6 hPa 0,0 l/m 0 min 0 min 0,0 UV-I 0 W/m 20,6 km/h (4 Bft)
05.02.2014 22:24 8,1 C 6,1 C 76 % 996,6 hPa 0,0 l/m 0 min 0 min 0,0 UV-I 0 W/m 15,4 km/h (3 Bft)
05.02.2014 22:26 8,1 C 6,1 C 76 % 996,7 hPa 0,0 l/m 0 min 0 min 0,0 UV-I 0 W/m 30,9 km/h (5 Bft)
05.02.2014 22:28 8,2 C 6,7 C 76 % 997,0 hPa 0,0 l/m 0 min 0 min 0,0 UV-I 0 W/m 30,9 km/h (5 Bft)
05.02.2014 22:30 8,2 C 6,7 C 80 % 996,8 hPa 0,0 l/m 0 min 0 min 0,0 UV-I 0 W/m 20,6 km/h (4 Bft)
05.02.2014 22:32 8,2 C 6,7 C 76 % 996,9 hPa 0,0 l/m 0 min 0 min 0,0 UV-I 0 W/m 33,5 km/h (5 Bft)
05.02.2014 22:34 8,2 C 6,1 C 76 % 996,9 hPa 0,0 l/m 0 min 0 min 0,0 UV-I 0 W/m 12,9 km/h (3 Bft)
05.02.2014 22:36 8,2 C 6,1 C 76 % 997,0 hPa 0,0 l/m 0 min 0 min 0,0 UV-I 0 W/m 25,7 km/h (4 Bft)
05.02.2014 22:38 8,2 C 6,1 C 79 % 996,8 hPa 0,0 l/m 0 min 0 min 0,0 UV-I 0 W/m 20,6 km/h (4 Bft)
05.02.2014 22:40 8,2 C 6,1 C 76 % 996,9 hPa 0,0 l/m 0 min 0 min 0,0 UV-I 0 W/m 25,7 km/h (4 Bft)
05.02.2014 22:42 8,2 C 6,1 C 76 % 996,9 hPa 0,0 l/m 0 min 0 min 0,0 UV-I 0 W/m 18,0 km/h (3 Bft)
05.02.2014 22:44 8,1 C 6,1 C 77 % 997,0 hPa 0,0 l/m 0 min 0 min 0,0 UV-I 0 W/m 23,2 km/h (4 Bft)
05.02.2014 22:46 8,1 C 6,1 C 77 % 997,0 hPa 0,0 l/m 0 min 0 min 0,0 UV-I 0 W/m 15,4 km/h (3 Bft)
05.02.2014 22:48 8,1 C 6,1 C 77 % 997,0 hPa 0,0 l/m 0 min 0 min 0,0 UV-I 0 W/m 23,2 km/h (4 Bft)
05.02.2014 22:50 8,0 C 6,1 C 77 % 997,0 hPa 0,0 l/m 0 min 0 min 0,0 UV-I 0 W/m 20,6 km/h (4 Bft)
05.02.2014 22:52 8,0 C 6,1 C 77 % 997,0 hPa 0,0 l/m 0 min 0 min 0,0 UV-I 0 W/m 41,2 km/h (6 Bft)
05.02.2014 22:54 8,0 C 6,1 C 77 % 997,0 hPa 0,0 l/m 0 min 0 min 0,0 UV-I 0 W/m 28,3 km/h (4 Bft)
05.02.2014 22:56 8,0 C 6,1 C 78 % 997,1 hPa 0,0 l/m 0 min 0 min 0,0 UV-I 0 W/m 28,3 km/h (4 Bft)
05.02.2014 22:58 8,0 C 6,1 C 78 % 997,0 hPa 0,0 l/m 0 min 0 min 0,0 UV-I 0 W/m 20,6 km/h (4 Bft)
05.02.2014 23:00 8,0 C 6,1 C 77 % 997,0 hPa 0,0 l/m 0 min 0 min 0,0 UV-I 0 W/m 36,0 km/h (5 Bft)
05.02.2014 23:02 8,0 C 6,1 C 78 % 997,0 hPa 0,0 l/m 0 min 0 min 0,0 UV-I 0 W/m 28,3 km/h (4 Bft)
05.02.2014 23:04 8,0 C 6,1 C 78 % 997,0 hPa 0,0 l/m 0 min 0 min 0,0 UV-I 0 W/m 23,2 km/h (4 Bft)
05.02.2014 23:06 7,9 C 6,1 C 78 % 997,1 hPa 0,0 l/m 0 min 0 min 0,0 UV-I 0 W/m 20,6 km/h (4 Bft)
05.02.2014 23:08 7,9 C 6,1 C 78 % 997,1 hPa 0,0 l/m 0 min 0 min 0,0 UV-I 0 W/m 28,3 km/h (4 Bft)
05.02.2014 23:10 8,0 C 6,1 C 78 % 997,2 hPa 0,0 l/m 0 min 0 min 0,0 UV-I 0 W/m 30,9 km/h (5 Bft)
05.02.2014 23:12 8,0 C 6,1 C 78 % 997,2 hPa 0,0 l/m 0 min 0 min 0,0 UV-I 0 W/m 33,5 km/h (5 Bft)
05.02.2014 23:14 8,0 C 6,1 C 78 % 997,3 hPa 0,0 l/m 0 min 0 min 0,0 UV-I 0 W/m 18,0 km/h (3 Bft)
05.02.2014 23:16 8,0 C 6,1 C 78 % 997,3 hPa 0,0 l/m 0 min 0 min 0,0 UV-I 0 W/m 15,4 km/h (3 Bft)
05.02.2014 23:18 8,0 C 6,1 C 78 % 997,3 hPa 0,0 l/m 0 min 0 min 0,0 UV-I 0 W/m 23,2 km/h (4 Bft)
05.02.2014 23:20 7,9 C 6,1 C 78 % 997,3 hPa 0,0 l/m 0 min 0 min 0,0 UV-I 0 W/m 15,4 km/h (3 Bft)
05.02.2014 23:22 7,9 C 6,1 C 78 % 997,6 hPa 0,0 l/m 0 min 0 min 0,0 UV-I 0 W/m 20,6 km/h (4 Bft)
05.02.2014 23:24 7,9 C 6,1 C 79 % 997,5 hPa 0,0 l/m 0 min 0 min 0,0 UV-I 0 W/m 18,0 km/h (3 Bft)
05.02.2014 23:26 7,9 C 6,1 C 79 % 997,5 hPa 0,0 l/m 0 min 0 min 0,0 UV-I 0 W/m 59,2 km/h (7 Bft)
05.02.2014 23:28 8,0 C 6,1 C 79 % 997,4 hPa 0,0 l/m 0 min 0 min 0,0 UV-I 0 W/m 30,9 km/h (5 Bft)
05.02.2014 23:30 7,9 C 6,1 C 79 % 997,6 hPa 0,0 l/m 0 min 0 min 0,0 UV-I 0 W/m 30,9 km/h (5 Bft)
05.02.2014 23:32 7,9 C 6,1 C 79 % 997,6 hPa 0,0 l/m 0 min 0 min 0,0 UV-I 0 W/m 18,0 km/h (3 Bft)
05.02.2014 23:34 7,9 C 6,1 C 79 % 997,7 hPa 0,0 l/m 0 min 0 min 0,0 UV-I 0 W/m 12,9 km/h (3 Bft)
05.02.2014 23:36 7,9 C 6,1 C 79 % 997,6 hPa 0,0 l/m 0 min 0 min 0,0 UV-I 0 W/m 23,2 km/h (4 Bft)
05.02.2014 23:38 7,9 C 6,1 C 79 % 997,8 hPa 0,0 l/m 0 min 0 min 0,0 UV-I 0 W/m 33,5 km/h (5 Bft)
05.02.2014 23:40 7,9 C 6,1 C 79 % 997,7 hPa 0,0 l/m 0 min 0 min 0,0 UV-I 0 W/m 20,6 km/h (4 Bft)
05.02.2014 23:42 7,9 C 6,1 C 79 % 997,7 hPa 0,0 l/m 0 min 0 min 0,0 UV-I 0 W/m 30,9 km/h (5 Bft)
05.02.2014 23:44 7,9 C 6,1 C 79 % 997,7 hPa 0,0 l/m 0 min 0 min 0,0 UV-I 0 W/m 12,9 km/h (3 Bft)
05.02.2014 23:46 7,8 C 6,1 C 80 % 997,9 hPa 0,0 l/m 0 min 0 min 0,0 UV-I 0 W/m 30,9 km/h (5 Bft)
05.02.2014 23:48 7,9 C 6,1 C 80 % 998,0 hPa 0,0 l/m 0 min 0 min 0,0 UV-I 0 W/m 33,5 km/h (5 Bft)
05.02.2014 23:50 7,9 C 6,1 C 80 % 997,8 hPa 0,0 l/m 0 min 0 min 0,0 UV-I 0 W/m 30,9 km/h (5 Bft)
05.02.2014 23:52 7,9 C 6,1 C 80 % 997,8 hPa 0,0 l/m 0 min 0 min 0,0 UV-I 0 W/m 23,2 km/h (4 Bft)
05.02.2014 23:54 7,9 C 6,1 C 80 % 997,9 hPa 0,0 l/m 0 min 0 min 0,0 UV-I 0 W/m 15,4 km/h (3 Bft)
05.02.2014 23:56 7,8 C 6,1 C 80 % 997,8 hPa 0,0 l/m 0 min 0 min 0,0 UV-I 0 W/m 15,4 km/h (3 Bft)
05.02.2014 23:58 7,8 C 6,1 C 80 % 997,8 hPa 0,0 l/m 0 min 0 min 0,0 UV-I 0 W/m 10,3 km/h (2 Bft)
_ Min-Zeit 01:58 01:46 22:08 16:04 - - - - - 21:02
Minimum _ 3,4 C 1,7 C 76 % 993,8 hPa - - - - - 5,1 km/h (1 Bft)
_ Max-Zeit 12:18 12:44 02:04 00:00 08:26 10:54 07:58 00:00 12:20 23:26
Maximum _ 8,3 C 7,2 C 91 % 1003,3 hPa 0,2 l/m 2 min 2 min 0,0 UV-I 376 W/m 59,2 km/h
S-SO (7 Bft)
Durchschnitt _ 5,9 C 4,3 C 85 % 996,8 hPa #0,4 l/m #1:24 h #1:50 h 0,0 UV-I 103 W/m 23,2 km/h (4 Bft)
© 2014 W. Hausmann